Time,TemperatureF,DewpointF,PressureIn,WindDirection,WindDirectionDegrees,WindSpeedMPH,WindSpeedGustMPH,Humidity,HourlyPrecipIn,Conditions,Clouds,dailyrainin,SoftwareType,DateUTC
2013-02-04 00:00:00,47.7,26.7,29.65,North,0,2.9,4.5,44,0.00,,,0.00,WUHU216HW,2013-02-04 07:00:00,
2013-02-04 00:04:00,47.7,26.7,29.65,North,0,3.8,5.1,44,0.00,,,0.00,WUHU216HW,2013-02-04 07:04:00,
2013-02-04 00:05:00,47.7,26.7,29.65,North,0,2.5,5.1,44,0.00,,,0.00,WUHU216HW,2013-02-04 07:05:00,
2013-02-04 00:06:00,47.7,26.7,29.65,NNW,338,2.2,5.1,44,0.00,,,0.00,WUHU216HW,2013-02-04 07:06:00,
2013-02-04 00:09:00,47.5,27.1,29.65,NNW,338,1.6,5.1,45,0.00,,,0.00,WUHU216HW,2013-02-04 07:09:00,
2013-02-04 00:10:00,47.3,26.9,29.65,North,0,4.7,5.1,45,0.00,,,0.00,WUHU216HW,2013-02-04 07:10:00,
2013-02-04 00:11:00,47.3,26.9,29.65,North,0,2.7,5.1,45,0.00,,,0.00,WUHU216HW,2013-02-04 07:11:00,
2013-02-04 00:14:00,47.2,26.7,29.65,NW,315,1.8,4.7,45,0.00,,,0.00,WUHU216HW,2013-02-04 07:14:00,
2013-02-04 00:15:00,47.2,26.7,29.65,NW,315,1.8,4.7,45,0.00,,,0.00,WUHU216HW,2013-02-04 07:15:00,
2013-02-04 00:16:00,47.2,26.7,29.65,NW,315,2.5,4.7,45,0.00,,,0.00,WUHU216HW,2013-02-04 07:16:00,
2013-02-04 00:20:00,47.0,26.6,29.65,NNW,338,0.7,4.7,45,0.00,,,0.00,WUHU216HW,2013-02-04 07:20:00,
2013-02-04 00:21:00,46.8,26.5,29.65,NNW,338,3.1,3.6,45,0.00,,,0.00,WUHU216HW,2013-02-04 07:21:00,
2013-02-04 00:25:00,46.8,27.0,29.65,NNW,338,1.1,3.6,46,0.00,,,0.00,WUHU216HW,2013-02-04 07:25:00,
2013-02-04 00:26:00,46.8,27.0,29.65,NNW,338,1.1,3.6,46,0.00,,,0.00,WUHU216HW,2013-02-04 07:26:00,
2013-02-04 00:30:00,46.6,26.8,29.65,North,0,2.9,3.4,46,0.00,,,0.00,WUHU216HW,2013-02-04 07:30:00,
2013-02-04 00:31:00,46.6,26.8,29.65,North,0,2.9,3.4,46,0.00,,,0.00,WUHU216HW,2013-02-04 07:31:00,
2013-02-04 00:35:00,46.4,26.6,29.65,North,0,1.3,3.4,46,0.00,,,0.00,WUHU216HW,2013-02-04 07:35:00,
2013-02-04 00:36:00,46.4,26.6,29.64,West,270,2.5,2.9,46,0.00,,,0.00,WUHU216HW,2013-02-04 07:36:00,
2013-02-04 00:37:00,46.4,26.6,29.64,NW,315,4.9,4.9,46,0.00,,,0.00,WUHU216HW,2013-02-04 07:37:00,
2013-02-04 00:40:00,46.3,26.5,29.64,West,270,0.9,4.9,46,0.00,,,0.00,WUHU216HW,2013-02-04 07:40:00,
2013-02-04 00:41:00,46.3,26.5,29.64,West,270,0.9,4.9,46,0.00,,,0.00,WUHU216HW,2013-02-04 07:41:00,
2013-02-04 00:42:00,46.3,26.5,29.64,West,270,0.7,4.9,46,0.00,,,0.00,WUHU216HW,2013-02-04 07:42:00,
2013-02-04 00:45:00,46.3,26.5,29.64,West,270,0.2,4.9,46,0.00,,,0.00,WUHU216HW,2013-02-04 07:45:00,
2013-02-04 00:46:00,46.3,26.5,29.64,WSW,248,4.0,4.0,46,0.00,,,0.00,WUHU216HW,2013-02-04 07:46:00,
2013-02-04 00:47:00,46.1,26.3,29.64,NW,315,0.2,4.0,46,0.00,,,0.00,WUHU216HW,2013-02-04 07:47:00,
2013-02-04 00:50:00,46.1,26.3,29.64,WSW,248,0.4,4.0,46,0.00,,,0.00,WUHU216HW,2013-02-04 07:50:00,
2013-02-04 00:51:00,46.1,26.3,29.64,WSW,248,0.4,4.0,46,0.00,,,0.00,WUHU216HW,2013-02-04 07:51:00,
2013-02-04 00:52:00,46.1,26.8,29.65,NNW,338,1.1,4.0,47,0.00,,,0.00,WUHU216HW,2013-02-04 07:52:00,
2013-02-04 00:55:00,46.1,26.8,29.65,NNW,338,2.9,4.0,47,0.00,,,0.00,WUHU216HW,2013-02-04 07:55:00,
2013-02-04 00:56:00,46.1,26.8,29.65,NNW,338,2.9,2.9,47,0.00,,,0.00,WUHU216HW,2013-02-04 07:56:00,
2013-02-04 00:58:00,46.1,26.8,29.65,NNW,338,4.0,4.7,47,0.00,,,0.00,WUHU216HW,2013-02-04 07:58:00,
2013-02-04 01:00:00,46.1,26.8,29.65,North,0,4.0,4.7,47,0.00,,,0.00,WUHU216HW,2013-02-04 08:00:00,
2013-02-04 01:01:00,46.1,26.8,29.65,North,0,4.0,4.7,47,0.00,,,0.00,WUHU216HW,2013-02-04 08:01:00,
2013-02-04 01:03:00,46.1,27.4,29.65,NNE,23,3.4,4.7,48,0.00,,,0.00,WUHU216HW,2013-02-04 08:03:00,
2013-02-04 01:05:00,45.9,26.7,29.65,NNE,23,4.0,6.0,47,0.00,,,0.00,WUHU216HW,2013-02-04 08:05:00,
2013-02-04 01:06:00,45.9,26.7,29.65,North,0,1.8,6.0,47,0.00,,,0.00,WUHU216HW,2013-02-04 08:06:00,
2013-02-04 01:08:00,45.9,26.7,29.65,NW,315,1.6,6.0,47,0.00,,,0.00,WUHU216HW,2013-02-04 08:08:00,
2013-02-04 01:11:00,45.9,27.3,29.65,NNW,338,1.1,6.0,48,0.00,,,0.00,WUHU216HW,2013-02-04 08:11:00,
2013-02-04 01:13:00,45.9,26.7,29.65,North,0,2.0,4.5,47,0.00,,,0.00,WUHU216HW,2013-02-04 08:13:00,
2013-02-04 01:16:00,45.9,27.3,29.65,NNW,338,1.8,3.8,48,0.00,,,0.00,WUHU216HW,2013-02-04 08:16:00,
2013-02-04 01:17:00,45.7,27.1,29.65,NNE,23,3.4,3.8,48,0.00,,,0.00,WUHU216HW,2013-02-04 08:17:00,
2013-02-04 01:18:00,45.7,27.1,29.65,NNW,338,1.8,3.8,48,0.00,,,0.00,WUHU216HW,2013-02-04 08:18:00,
2013-02-04 01:21:00,45.7,27.1,29.64,NNW,338,4.7,4.7,48,0.00,,,0.00,WUHU216HW,2013-02-04 08:21:00,
2013-02-04 01:22:00,45.7,27.1,29.64,NNW,338,4.7,4.7,48,0.00,,,0.00,WUHU216HW,2013-02-04 08:22:00,
2013-02-04 01:23:00,45.5,27.5,29.64,NNW,338,3.8,4.7,49,0.00,,,0.00,WUHU216HW,2013-02-04 08:23:00,
2013-02-04 01:26:00,45.2,27.1,29.64,North,0,2.5,4.7,49,0.00,,,0.00,WUHU216HW,2013-02-04 08:26:00,
2013-02-04 01:27:00,45.2,27.1,29.64,North,0,2.5,4.7,49,0.00,,,0.00,WUHU216HW,2013-02-04 08:27:00,
2013-02-04 01:29:00,45.0,27.0,29.64,NNW,338,2.5,4.7,49,0.00,,,0.00,WUHU216HW,2013-02-04 08:29:00,
2013-02-04 01:31:00,44.8,27.4,29.64,NNW,338,4.9,6.3,50,0.00,,,0.00,WUHU216HW,2013-02-04 08:31:00,
2013-02-04 01:32:00,44.8,27.4,29.64,NNW,338,4.9,6.3,50,0.00,,,0.00,WUHU216HW,2013-02-04 08:32:00,
2013-02-04 01:34:00,44.6,27.6,29.65,NNW,338,3.6,6.3,51,0.00,,,0.00,WUHU216HW,2013-02-04 08:34:00,
2013-02-04 01:36:00,44.5,27.5,29.65,North,0,2.2,6.3,51,0.00,,,0.00,WUHU216HW,2013-02-04 08:36:00,
2013-02-04 01:37:00,44.5,27.5,29.65,North,0,4.7,6.3,51,0.00,,,0.00,WUHU216HW,2013-02-04 08:37:00,
2013-02-04 01:39:00,44.5,27.5,29.65,North,0,2.5,6.3,51,0.00,,,0.00,WUHU216HW,2013-02-04 08:39:00,
2013-02-04 01:41:00,44.5,27.5,29.65,NNE,23,3.4,5.6,51,0.00,,,0.00,WUHU216HW,2013-02-04 08:41:00,
2013-02-04 01:42:00,44.5,27.5,29.65,NE,45,2.5,5.6,51,0.00,,,0.00,WUHU216HW,2013-02-04 08:42:00,
2013-02-04 01:44:00,44.5,27.0,29.65,North,0,0.7,4.7,50,0.00,,,0.00,WUHU216HW,2013-02-04 08:44:00,
2013-02-04 01:47:00,44.5,27.0,29.65,NNE,23,1.3,4.7,50,0.00,,,0.00,WUHU216HW,2013-02-04 08:47:00,
2013-02-04 01:49:00,44.5,27.5,29.65,NNW,338,2.5,5.6,51,0.00,,,0.00,WUHU216HW,2013-02-04 08:49:00,
2013-02-04 01:52:00,44.5,27.5,29.66,North,0,1.8,5.6,51,0.00,,,0.00,WUHU216HW,2013-02-04 08:52:00,
2013-02-04 01:54:00,44.5,27.5,29.66,North,0,2.0,5.6,51,0.00,,,0.00,WUHU216HW,2013-02-04 08:54:00,
2013-02-04 01:57:00,44.3,26.8,29.66,North,0,1.6,5.6,50,0.00,,,0.00,WUHU216HW,2013-02-04 08:57:00,
2013-02-04 01:59:00,44.5,27.0,29.66,NNW,338,0.7,4.0,50,0.00,,,0.00,WUHU216HW,2013-02-04 08:59:00,
2013-02-04 02:02:00,44.5,27.0,29.66,NNW,338,1.8,4.0,50,0.00,,,0.00,WUHU216HW,2013-02-04 09:02:00,
2013-02-04 02:04:00,44.3,26.8,29.65,North,0,1.1,2.5,50,0.00,,,0.00,WUHU216HW,2013-02-04 09:04:00,
2013-02-04 02:07:00,44.3,27.3,29.65,NNW,338,0.7,2.5,51,0.00,,,0.00,WUHU216HW,2013-02-04 09:07:00,
2013-02-04 02:10:00,44.3,27.3,29.65,NNW,338,0.9,2.5,51,0.00,,,0.00,WUHU216HW,2013-02-04 09:10:00,
2013-02-04 02:12:00,44.1,27.2,29.66,North,0,1.1,2.7,51,0.00,,,0.00,WUHU216HW,2013-02-04 09:12:00,
2013-02-04 02:15:00,44.1,27.2,29.66,North,0,0.9,2.7,51,0.00,,,0.00,WUHU216HW,2013-02-04 09:15:00,
2013-02-04 02:17:00,43.9,27.0,29.66,North,0,0.9,2.7,51,0.00,,,0.00,WUHU216HW,2013-02-04 09:17:00,
2013-02-04 02:18:00,43.9,27.0,29.66,North,0,0.9,2.7,51,0.00,,,0.00,WUHU216HW,2013-02-04 09:18:00,
2013-02-04 02:20:00,44.1,27.2,29.66,North,0,1.3,2.7,51,0.00,,,0.00,WUHU216HW,2013-02-04 09:20:00,
2013-02-04 02:22:00,44.1,27.2,29.66,NNW,338,0.4,1.8,51,0.00,,,0.00,WUHU216HW,2013-02-04 09:22:00,
2013-02-04 02:23:00,43.9,27.0,29.66,North,0,0.4,1.3,51,0.00,,,0.00,WUHU216HW,2013-02-04 09:23:00,
2013-02-04 02:25:00,43.9,27.0,29.66,North,0,0.4,1.3,51,0.00,,,0.00,WUHU216HW,2013-02-04 09:25:00,
2013-02-04 02:27:00,43.9,27.0,29.66,North,0,1.6,1.6,51,0.00,,,0.00,WUHU216HW,2013-02-04 09:27:00,
2013-02-04 02:28:00,43.9,27.0,29.66,North,0,1.6,1.6,51,0.00,,,0.00,WUHU216HW,2013-02-04 09:28:00,
2013-02-04 02:30:00,43.9,27.0,29.66,NNW,338,0.0,1.8,51,0.00,,,0.00,WUHU216HW,2013-02-04 09:30:00,
2013-02-04 02:33:00,43.9,27.0,29.66,North,0,0.2,1.8,51,0.00,,,0.00,WUHU216HW,2013-02-04 09:33:00,
2013-02-04 02:35:00,43.7,26.8,29.65,NW,315,0.2,1.8,51,0.00,,,0.00,WUHU216HW,2013-02-04 09:35:00,
2013-02-04 02:38:00,43.6,26.6,29.66,West,270,0.7,1.8,51,0.00,,,0.00,WUHU216HW,2013-02-04 09:38:00,
2013-02-04 02:40:00,43.6,27.1,29.66,North,0,1.3,1.6,52,0.00,,,0.00,WUHU216HW,2013-02-04 09:40:00,
2013-02-04 02:43:00,43.4,26.9,29.66,NNW,338,0.7,1.6,52,0.00,,,0.00,WUHU216HW,2013-02-04 09:43:00,
2013-02-04 02:45:00,43.2,26.7,29.66,WNW,293,0.4,1.3,52,0.00,,,0.00,WUHU216HW,2013-02-04 09:45:00,
2013-02-04 02:48:00,43.0,26.6,29.66,NNW,338,0.2,1.3,52,0.00,,,0.00,WUHU216HW,2013-02-04 09:48:00,
2013-02-04 02:50:00,43.0,26.6,29.66,North,0,1.6,1.6,52,0.00,,,0.00,WUHU216HW,2013-02-04 09:50:00,
2013-02-04 02:53:00,42.8,26.8,29.66,WNW,293,2.2,2.2,53,0.00,,,0.00,WUHU216HW,2013-02-04 09:53:00,
2013-02-04 02:54:00,42.8,26.8,29.66,West,270,2.5,2.5,53,0.00,,,0.00,WUHU216HW,2013-02-04 09:54:00,
2013-02-04 02:56:00,42.7,26.6,29.66,NW,315,2.2,2.5,53,0.00,,,0.00,WUHU216HW,2013-02-04 09:56:00,
2013-02-04 02:58:00,42.5,26.6,29.66,North,0,2.0,2.5,53,0.00,,,0.00,WUHU216HW,2013-02-04 09:58:00,
2013-02-04 02:59:00,42.3,26.4,29.66,NW,315,1.3,2.5,53,0.00,,,0.00,WUHU216HW,2013-02-04 09:59:00,
2013-02-04 03:01:00,42.1,26.7,29.66,ENE,68,2.7,2.7,54,0.00,,,0.00,WUHU216HW,2013-02-04 10:01:00,
2013-02-04 03:03:00,41.9,26.9,29.66,NW,315,4.3,5.8,55,0.00,,,0.00,WUHU216HW,2013-02-04 10:03:00,
2013-02-04 03:04:00,41.9,26.9,29.66,NW,315,4.3,5.8,55,0.00,,,0.00,WUHU216HW,2013-02-04 10:04:00,
2013-02-04 03:06:00,41.8,26.7,29.66,NNW,338,3.4,5.8,55,0.00,,,0.00,WUHU216HW,2013-02-04 10:06:00,
2013-02-04 03:08:00,41.6,27.0,29.66,WNW,293,3.4,5.8,56,0.00,,,0.00,WUHU216HW,2013-02-04 10:08:00,
2013-02-04 03:09:00,41.6,27.0,29.66,WNW,293,3.4,5.8,56,0.00,,,0.00,WUHU216HW,2013-02-04 10:09:00,
2013-02-04 03:11:00,41.4,26.8,29.66,NNW,338,6.0,6.0,56,0.00,,,0.00,WUHU216HW,2013-02-04 10:11:00,
2013-02-04 03:13:00,41.4,26.8,29.66,North,0,3.4,6.0,56,0.00,,,0.00,WUHU216HW,2013-02-04 10:13:00,
2013-02-04 03:14:00,41.4,26.8,29.66,North,0,3.4,6.0,56,0.00,,,0.00,WUHU216HW,2013-02-04 10:14:00,
2013-02-04 03:16:00,41.4,27.3,29.66,North,0,3.1,6.0,57,0.00,,,0.00,WUHU216HW,2013-02-04 10:16:00,
2013-02-04 03:19:00,41.2,27.1,29.66,NNW,338,6.0,6.0,57,0.00,,,0.00,WUHU216HW,2013-02-04 10:19:00,
2013-02-04 03:21:00,41.0,27.4,29.66,NE,45,4.3,6.9,58,0.00,,,0.00,WUHU216HW,2013-02-04 10:21:00,
2013-02-04 03:24:00,41.0,27.4,29.66,NW,315,2.5,6.9,58,0.00,,,0.00,WUHU216HW,2013-02-04 10:24:00,
2013-02-04 03:26:00,41.0,27.4,29.66,NNW,338,3.4,6.9,58,0.00,,,0.00,WUHU216HW,2013-02-04 10:26:00,
2013-02-04 03:29:00,40.9,27.6,29.66,NNW,338,3.6,6.9,59,0.00,,,0.00,WUHU216HW,2013-02-04 10:29:00,
2013-02-04 03:30:00,40.9,27.6,29.66,NE,45,3.1,6.9,59,0.00,,,0.00,WUHU216HW,2013-02-04 10:30:00,
2013-02-04 03:31:00,40.9,27.6,29.66,SSE,158,2.9,4.7,59,0.00,,,0.00,WUHU216HW,2013-02-04 10:31:00,
2013-02-04 03:34:00,40.7,27.5,29.66,WSW,248,2.7,3.6,59,0.00,,,0.00,WUHU216HW,2013-02-04 10:34:00,
2013-02-04 03:35:00,40.7,27.5,29.66,NNW,338,0.7,3.6,59,0.00,,,0.00,WUHU216HW,2013-02-04 10:35:00,
2013-02-04 03:36:00,40.7,27.5,29.66,NNW,338,4.7,4.7,59,0.00,,,0.00,WUHU216HW,2013-02-04 10:36:00,
2013-02-04 03:39:00,40.5,27.7,29.66,NW,315,2.5,4.7,60,0.00,,,0.00,WUHU216HW,2013-02-04 10:39:00,
2013-02-04 03:40:00,40.5,27.7,29.66,NW,315,2.5,4.7,60,0.00,,,0.00,WUHU216HW,2013-02-04 10:40:00,
2013-02-04 03:42:00,40.5,27.7,29.66,West,270,2.2,4.7,60,0.00,,,0.00,WUHU216HW,2013-02-04 10:42:00,
2013-02-04 03:44:00,40.5,27.7,29.66,North,0,1.8,4.7,60,0.00,,,0.00,WUHU216HW,2013-02-04 10:44:00,
2013-02-04 03:45:00,40.5,27.7,29.66,North,0,1.8,4.7,60,0.00,,,0.00,WUHU216HW,2013-02-04 10:45:00,
2013-02-04 03:47:00,40.3,27.9,29.66,NW,315,3.1,4.0,61,0.00,,,0.00,WUHU216HW,2013-02-04 10:47:00,
2013-02-04 03:49:00,40.1,27.7,29.65,NNW,338,4.0,4.0,61,0.00,,,0.00,WUHU216HW,2013-02-04 10:49:00,
2013-02-04 03:50:00,40.1,27.7,29.65,NNW,338,4.0,4.0,61,0.00,,,0.00,WUHU216HW,2013-02-04 10:50:00,
2013-02-04 03:52:00,40.1,27.7,29.66,NNW,338,3.4,4.0,61,0.00,,,0.00,WUHU216HW,2013-02-04 10:52:00,
2013-02-04 03:54:00,40.0,27.5,29.66,NW,315,1.3,4.0,61,0.00,,,0.00,WUHU216HW,2013-02-04 10:54:00,
2013-02-04 03:55:00,40.0,27.5,29.66,NW,315,1.3,4.0,61,0.00,,,0.00,WUHU216HW,2013-02-04 10:55:00,
2013-02-04 03:57:00,40.0,27.9,29.65,North,0,3.4,4.0,62,0.00,,,0.00,WUHU216HW,2013-02-04 10:57:00,
2013-02-04 03:59:00,40.0,27.9,29.65,West,270,1.6,4.3,62,0.00,,,0.00,WUHU216HW,2013-02-04 10:59:00,
2013-02-04 04:00:00,40.0,27.9,29.65,NW,315,2.0,4.3,62,0.00,,,0.00,WUHU216HW,2013-02-04 11:00:00,
2013-02-04 04:02:00,39.8,27.7,29.65,NNW,338,4.5,4.5,62,0.00,,,0.00,WUHU216HW,2013-02-04 11:02:00,
2013-02-04 04:05:00,39.8,28.2,29.65,NNW,338,2.5,4.5,63,0.00,,,0.00,WUHU216HW,2013-02-04 11:05:00,
2013-02-04 04:07:00,39.8,28.2,29.65,NNW,338,5.8,5.8,63,0.00,,,0.00,WUHU216HW,2013-02-04 11:07:00,
2013-02-04 04:10:00,40.0,28.4,29.65,NNW,338,3.1,5.8,63,0.00,,,0.00,WUHU216HW,2013-02-04 11:10:00,
2013-02-04 04:11:00,40.0,28.4,29.65,NNW,338,3.1,5.8,63,0.00,,,0.00,WUHU216HW,2013-02-04 11:11:00,
2013-02-04 04:12:00,40.0,28.4,29.65,NW,315,7.6,8.5,63,0.00,,,0.00,WUHU216HW,2013-02-04 11:12:00,
2013-02-04 04:15:00,40.0,28.4,29.65,NNE,23,8.3,8.5,63,0.00,,,0.00,WUHU216HW,2013-02-04 11:15:00,
2013-02-04 04:16:00,40.0,28.4,29.65,NNE,23,8.3,8.5,63,0.00,,,0.00,WUHU216HW,2013-02-04 11:16:00,
2013-02-04 04:17:00,40.0,28.4,29.66,NNW,338,6.7,8.5,63,0.00,,,0.00,WUHU216HW,2013-02-04 11:17:00,
2013-02-04 04:20:00,40.0,28.4,29.65,North,0,6.3,8.5,63,0.00,,,0.00,WUHU216HW,2013-02-04 11:20:00,
2013-02-04 04:21:00,40.0,28.7,29.66,NNW,338,8.7,8.7,64,0.00,,,0.00,WUHU216HW,2013-02-04 11:21:00,
2013-02-04 04:23:00,40.0,28.7,29.66,North,0,6.3,8.7,64,0.00,,,0.00,WUHU216HW,2013-02-04 11:23:00,
2013-02-04 04:26:00,40.0,28.7,29.66,NNW,338,5.8,8.7,64,0.00,,,0.00,WUHU216HW,2013-02-04 11:26:00,
2013-02-04 04:28:00,40.1,28.9,29.67,NNW,338,7.6,8.7,64,0.00,,,0.00,WUHU216HW,2013-02-04 11:28:00,
2013-02-04 04:31:00,40.3,29.1,29.67,North,0,4.7,8.7,64,0.00,,,0.00,WUHU216HW,2013-02-04 11:31:00,
2013-02-04 04:33:00,40.3,28.7,29.67,North,0,2.7,7.6,63,0.00,,,0.00,WUHU216HW,2013-02-04 11:33:00,
2013-02-04 04:36:00,40.3,28.7,29.66,North,0,1.8,7.6,63,0.00,,,0.00,WUHU216HW,2013-02-04 11:36:00,
2013-02-04 04:38:00,40.5,28.9,29.67,North,0,2.7,5.1,63,0.00,,,0.00,WUHU216HW,2013-02-04 11:38:00,
2013-02-04 04:41:00,40.5,28.9,29.67,NNW,338,4.5,5.1,63,0.00,,,0.00,WUHU216HW,2013-02-04 11:41:00,
2013-02-04 04:43:00,40.5,28.9,29.67,NNE,23,4.5,5.1,63,0.00,,,0.00,WUHU216HW,2013-02-04 11:43:00,
2013-02-04 04:46:00,40.5,28.9,29.67,North,0,3.1,5.1,63,0.00,,,0.00,WUHU216HW,2013-02-04 11:46:00,
2013-02-04 04:49:00,40.5,28.9,29.67,North,0,1.6,5.1,63,0.00,,,0.00,WUHU216HW,2013-02-04 11:49:00,
2013-02-04 04:51:00,40.5,28.9,29.67,NNW,338,3.4,4.5,63,0.00,,,0.00,WUHU216HW,2013-02-04 11:51:00,
2013-02-04 04:52:00,40.5,28.9,29.67,North,0,6.0,6.0,63,0.00,,,0.00,WUHU216HW,2013-02-04 11:52:00,
2013-02-04 04:53:00,40.3,28.7,29.67,NNE,23,2.5,6.0,63,0.00,,,0.00,WUHU216HW,2013-02-04 11:53:00,
2013-02-04 04:56:00,40.3,28.7,29.67,North,0,1.6,6.0,63,0.00,,,0.00,WUHU216HW,2013-02-04 11:56:00,
2013-02-04 04:57:00,40.3,28.3,29.67,North,0,4.3,6.0,62,0.00,,,0.00,WUHU216HW,2013-02-04 11:57:00,
2013-02-04 04:59:00,40.3,28.7,29.67,North,0,3.6,6.0,63,0.00,,,0.00,WUHU216HW,2013-02-04 11:59:00,
2013-02-04 05:01:00,40.3,28.7,29.67,North,0,4.3,5.4,63,0.00,,,0.00,WUHU216HW,2013-02-04 12:01:00,
2013-02-04 05:02:00,40.3,28.7,29.67,North,0,4.3,5.4,63,0.00,,,0.00,WUHU216HW,2013-02-04 12:02:00,
2013-02-04 05:03:00,40.3,28.7,29.67,North,0,2.2,5.4,63,0.00,,,0.00,WUHU216HW,2013-02-04 12:03:00,
2013-02-04 05:06:00,40.1,28.5,29.68,North,0,3.1,5.4,63,0.00,,,0.00,WUHU216HW,2013-02-04 12:06:00,
2013-02-04 05:07:00,40.1,28.5,29.68,North,0,3.1,5.4,63,0.00,,,0.00,WUHU216HW,2013-02-04 12:07:00,
2013-02-04 05:08:00,40.1,28.5,29.68,North,0,3.1,4.3,63,0.00,,,0.00,WUHU216HW,2013-02-04 12:08:00,
2013-02-04 05:11:00,40.1,28.5,29.68,NNE,23,4.3,4.3,63,0.00,,,0.00,WUHU216HW,2013-02-04 12:11:00,
2013-02-04 05:12:00,40.0,28.4,29.67,NNW,338,2.5,4.3,63,0.00,,,0.00,WUHU216HW,2013-02-04 12:12:00,
2013-02-04 05:14:00,40.0,28.4,29.68,NNW,338,1.3,4.3,63,0.00,,,0.00,WUHU216HW,2013-02-04 12:14:00,
2013-02-04 05:16:00,40.0,28.4,29.68,North,0,2.7,4.9,63,0.00,,,0.00,WUHU216HW,2013-02-04 12:16:00,
2013-02-04 05:17:00,40.0,28.4,29.68,North,0,2.7,4.9,63,0.00,,,0.00,WUHU216HW,2013-02-04 12:17:00,
2013-02-04 05:19:00,40.0,28.4,29.68,North,0,4.9,4.9,63,0.00,,,0.00,WUHU216HW,2013-02-04 12:19:00,
2013-02-04 05:21:00,40.0,28.4,29.67,NNW,338,4.0,4.9,63,0.00,,,0.00,WUHU216HW,2013-02-04 12:21:00,
2013-02-04 05:22:00,40.0,28.4,29.67,North,0,2.5,4.9,63,0.00,,,0.00,WUHU216HW,2013-02-04 12:22:00,
2013-02-04 05:24:00,40.0,28.4,29.67,NNW,338,3.1,5.6,63,0.00,,,0.00,WUHU216HW,2013-02-04 12:24:00,
2013-02-04 05:27:00,40.0,28.4,29.67,North,0,2.5,5.6,63,0.00,,,0.00,WUHU216HW,2013-02-04 12:27:00,
2013-02-04 05:29:00,40.0,28.4,29.67,NNW,338,3.8,5.6,63,0.00,,,0.00,WUHU216HW,2013-02-04 12:29:00,
2013-02-04 05:32:00,39.8,28.2,29.68,NNE,23,5.4,5.6,63,0.00,,,0.00,WUHU216HW,2013-02-04 12:32:00,
2013-02-04 05:34:00,39.8,28.2,29.68,North,0,2.7,5.4,63,0.00,,,0.00,WUHU216HW,2013-02-04 12:34:00,
2013-02-04 05:37:00,39.6,28.0,29.68,NNW,338,3.8,5.4,63,0.00,,,0.00,WUHU216HW,2013-02-04 12:37:00,
2013-02-04 05:38:00,39.6,28.0,29.68,North,0,0.9,5.4,63,0.00,,,0.00,WUHU216HW,2013-02-04 12:38:00,
2013-02-04 05:39:00,39.6,28.0,29.68,NNW,338,2.0,5.4,63,0.00,,,0.00,WUHU216HW,2013-02-04 12:39:00,
2013-02-04 05:42:00,39.6,28.0,29.68,NE,45,4.3,4.3,63,0.00,,,0.00,WUHU216HW,2013-02-04 12:42:00,
2013-02-04 05:43:00,39.6,28.0,29.68,NE,45,3.4,4.3,63,0.00,,,0.00,WUHU216HW,2013-02-04 12:43:00,
2013-02-04 05:44:00,39.6,28.0,29.68,NNE,23,2.0,4.3,63,0.00,,,0.00,WUHU216HW,2013-02-04 12:44:00,
2013-02-04 05:47:00,39.6,28.0,29.68,NE,45,2.5,4.3,63,0.00,,,0.00,WUHU216HW,2013-02-04 12:47:00,
2013-02-04 05:48:00,39.6,27.5,29.69,East,90,2.9,4.3,62,0.00,,,0.00,WUHU216HW,2013-02-04 12:48:00,
2013-02-04 05:49:00,39.6,28.0,29.69,ESE,113,0.9,4.3,63,0.00,,,0.00,WUHU216HW,2013-02-04 12:49:00,
2013-02-04 05:52:00,39.6,27.5,29.69,WNW,293,0.4,3.4,62,0.00,,,0.00,WUHU216HW,2013-02-04 12:52:00,
2013-02-04 05:53:00,39.6,28.0,29.69,SE,135,0.7,2.9,63,0.00,,,0.00,WUHU216HW,2013-02-04 12:53:00,
2013-02-04 05:54:00,39.6,27.5,29.69,ESE,113,0.2,2.9,62,0.00,,,0.00,WUHU216HW,2013-02-04 12:54:00,
2013-02-04 05:57:00,39.8,27.7,29.69,SSE,158,0.2,2.9,62,0.00,,,0.00,WUHU216HW,2013-02-04 12:57:00,
2013-02-04 05:58:00,39.8,27.7,29.69,East,90,0.2,2.5,62,0.00,,,0.00,WUHU216HW,2013-02-04 12:58:00,
2013-02-04 05:59:00,39.8,27.7,29.69,NNW,338,0.0,0.7,62,0.00,,,0.00,WUHU216HW,2013-02-04 12:59:00,
2013-02-04 06:02:00,39.8,27.7,29.69,WSW,248,0.0,0.7,62,0.00,,,0.00,WUHU216HW,2013-02-04 13:02:00,
2013-02-04 06:03:00,39.8,27.7,29.69,SE,135,0.4,0.4,62,0.00,,,0.00,WUHU216HW,2013-02-04 13:03:00,
2013-02-04 06:05:00,39.6,27.5,29.69,ESE,113,0.0,0.4,62,0.00,,,0.00,WUHU216HW,2013-02-04 13:05:00,
2013-02-04 06:07:00,39.6,27.2,29.69,ESE,113,0.0,0.4,61,0.00,,,0.00,WUHU216HW,2013-02-04 13:07:00,
2013-02-04 06:08:00,39.6,27.2,29.69,ESE,113,0.0,0.4,61,0.00,,,0.00,WUHU216HW,2013-02-04 13:08:00,
2013-02-04 06:10:00,39.6,27.2,29.69,ESE,113,0.0,0.4,61,0.00,,,0.00,WUHU216HW,2013-02-04 13:10:00,
2013-02-04 06:12:00,39.6,27.2,29.69,SSE,158,0.0,0.4,61,0.00,,,0.00,WUHU216HW,2013-02-04 13:12:00,
2013-02-04 06:13:00,39.6,27.2,29.69,NE,45,0.0,0.0,61,0.00,,,0.00,WUHU216HW,2013-02-04 13:13:00,
2013-02-04 06:15:00,39.6,27.2,29.69,NE,45,0.4,0.4,61,0.00,,,0.00,WUHU216HW,2013-02-04 13:15:00,
2013-02-04 06:17:00,39.6,27.2,29.69,ENE,68,0.4,0.4,61,0.00,,,0.00,WUHU216HW,2013-02-04 13:17:00,
2013-02-04 06:18:00,39.4,27.0,29.69,ENE,68,0.0,0.4,61,0.00,,,0.00,WUHU216HW,2013-02-04 13:18:00,
2013-02-04 06:19:00,39.4,27.0,29.69,ENE,68,0.0,0.4,61,0.00,,,0.00,WUHU216HW,2013-02-04 13:19:00,
2013-02-04 06:20:00,39.4,27.0,29.69,ENE,68,1.1,1.1,61,0.00,,,0.00,WUHU216HW,2013-02-04 13:20:00,
2013-02-04 06:23:00,39.4,27.0,29.69,ENE,68,0.7,1.1,61,0.00,,,0.00,WUHU216HW,2013-02-04 13:23:00,
2013-02-04 06:24:00,39.4,27.0,29.69,NNE,23,0.0,1.1,61,0.00,,,0.00,WUHU216HW,2013-02-04 13:24:00,
2013-02-04 06:25:00,39.4,27.0,29.69,NNW,338,0.2,1.1,61,0.00,,,0.00,WUHU216HW,2013-02-04 13:25:00,
2013-02-04 06:28:00,39.2,26.8,29.69,WNW,293,1.1,1.1,61,0.00,,,0.00,WUHU216HW,2013-02-04 13:28:00,
2013-02-04 06:29:00,39.2,26.8,29.69,WNW,293,0.4,1.1,61,0.00,,,0.00,WUHU216HW,2013-02-04 13:29:00,
2013-02-04 06:30:00,39.2,26.8,29.69,WNW,293,0.0,1.1,61,0.00,,,0.00,WUHU216HW,2013-02-04 13:30:00,
2013-02-04 06:33:00,39.2,26.8,29.69,NNE,23,0.0,1.1,61,0.00,,,0.00,WUHU216HW,2013-02-04 13:33:00,
2013-02-04 06:34:00,39.2,26.8,29.69,NNE,23,0.0,1.1,61,0.00,,,0.00,WUHU216HW,2013-02-04 13:34:00,
2013-02-04 06:35:00,39.2,26.8,29.70,NNE,23,0.0,1.1,61,0.00,,,0.00,WUHU216HW,2013-02-04 13:35:00,
2013-02-04 06:38:00,39.2,26.8,29.69,NNE,23,0.0,0.4,61,0.00,,,0.00,WUHU216HW,2013-02-04 13:38:00,
2013-02-04 06:39:00,39.2,26.8,29.69,NNE,23,0.0,0.4,61,0.00,,,0.00,WUHU216HW,2013-02-04 13:39:00,
2013-02-04 06:40:00,39.2,26.8,29.69,NNE,23,0.0,0.4,61,0.00,,,0.00,WUHU216HW,2013-02-04 13:40:00,
2013-02-04 06:43:00,39.2,26.8,29.69,NNE,23,0.0,0.0,61,0.00,,,0.00,WUHU216HW,2013-02-04 13:43:00,
2013-02-04 06:44:00,39.2,26.8,29.69,NNE,23,0.0,0.0,61,0.00,,,0.00,WUHU216HW,2013-02-04 13:44:00,
2013-02-04 06:46:00,39.2,26.8,29.69,NNE,23,0.0,0.0,61,0.00,,,0.00,WUHU216HW,2013-02-04 13:46:00,
2013-02-04 06:48:00,39.2,26.8,29.69,NNE,23,0.0,0.0,61,0.00,,,0.00,WUHU216HW,2013-02-04 13:48:00,
2013-02-04 06:49:00,39.2,26.8,29.69,NNE,23,0.0,0.0,61,0.00,,,0.00,WUHU216HW,2013-02-04 13:49:00,
2013-02-04 06:50:00,39.2,26.8,29.69,NNE,23,0.0,0.0,61,0.00,,,0.00,WUHU216HW,2013-02-04 13:50:00,
2013-02-04 06:51:00,39.2,26.8,29.69,NNE,23,0.0,0.0,61,0.00,,,0.00,WUHU216HW,2013-02-04 13:51:00,
2013-02-04 06:53:00,39.2,26.8,29.69,NNE,23,0.0,0.0,61,0.00,,,0.00,WUHU216HW,2013-02-04 13:53:00,
2013-02-04 06:54:00,39.2,26.8,29.69,NNE,23,0.0,0.0,61,0.00,,,0.00,WUHU216HW,2013-02-04 13:54:00,
2013-02-04 06:55:00,39.2,26.8,29.70,NNE,23,0.0,0.0,61,0.00,,,0.00,WUHU216HW,2013-02-04 13:55:00,
2013-02-04 06:56:00,39.2,26.8,29.70,NNE,23,0.0,0.0,61,0.00,,,0.00,WUHU216HW,2013-02-04 13:56:00,
2013-02-04 06:58:00,39.1,26.6,29.70,WNW,293,0.2,0.2,61,0.00,,,0.00,WUHU216HW,2013-02-04 13:58:00,
2013-02-04 06:59:00,39.1,26.6,29.70,WNW,293,0.0,0.2,61,0.00,,,0.00,WUHU216HW,2013-02-04 13:59:00,
2013-02-04 07:00:00,39.1,26.6,29.70,WNW,293,0.2,0.2,61,0.00,,,0.00,WUHU216HW,2013-02-04 14:00:00,
2013-02-04 07:01:00,39.1,26.6,29.70,WNW,293,0.0,0.2,61,0.00,,,0.00,WUHU216HW,2013-02-04 14:01:00,
2013-02-04 07:03:00,39.1,26.6,29.70,WNW,293,0.4,1.1,61,0.00,,,0.00,WUHU216HW,2013-02-04 14:03:00,
2013-02-04 07:05:00,38.9,26.6,29.70,WNW,293,0.2,1.1,61,0.00,,,0.00,WUHU216HW,2013-02-04 14:05:00,
2013-02-04 07:06:00,38.9,26.6,29.70,WNW,293,0.0,1.1,61,0.00,,,0.00,WUHU216HW,2013-02-04 14:06:00,
2013-02-04 07:08:00,38.9,26.6,29.70,WNW,293,0.0,1.1,61,0.00,,,0.00,WUHU216HW,2013-02-04 14:08:00,
2013-02-04 07:10:00,38.9,26.6,29.70,WNW,293,0.0,1.1,61,0.00,,,0.00,WUHU216HW,2013-02-04 14:10:00,
2013-02-04 07:11:00,38.9,26.6,29.71,North,0,0.2,1.1,61,0.00,,,0.00,WUHU216HW,2013-02-04 14:11:00,
2013-02-04 07:14:00,38.9,26.6,29.71,North,0,0.2,0.4,61,0.00,,,0.00,WUHU216HW,2013-02-04 14:14:00,
2013-02-04 07:15:00,38.9,26.6,29.71,North,0,0.0,0.4,61,0.00,,,0.00,WUHU216HW,2013-02-04 14:15:00,
2013-02-04 07:17:00,38.9,26.9,29.71,North,0,0.0,0.4,62,0.00,,,0.00,WUHU216HW,2013-02-04 14:17:00,
2013-02-04 07:19:00,38.9,26.9,29.71,North,0,0.0,0.4,62,0.00,,,0.00,WUHU216HW,2013-02-04 14:19:00,
2013-02-04 07:20:00,38.9,26.9,29.71,North,0,0.0,0.4,62,0.00,,,0.00,WUHU216HW,2013-02-04 14:20:00,
2013-02-04 07:22:00,39.1,27.1,29.71,North,0,0.0,0.4,62,0.00,,,0.00,WUHU216HW,2013-02-04 14:22:00,
2013-02-04 07:24:00,39.2,27.2,29.71,NW,315,0.2,0.2,62,0.00,,,0.00,WUHU216HW,2013-02-04 14:24:00,
2013-02-04 07:25:00,39.2,27.2,29.71,NNW,338,0.0,0.2,62,0.00,,,0.00,WUHU216HW,2013-02-04 14:25:00,
2013-02-04 07:27:00,39.4,27.4,29.71,North,0,0.2,0.2,62,0.00,,,0.00,WUHU216HW,2013-02-04 14:27:00,
2013-02-04 07:29:00,39.8,27.7,29.71,NNE,23,0.7,0.7,62,0.00,,,0.00,WUHU216HW,2013-02-04 14:29:00,
2013-02-04 07:30:00,40.0,27.9,29.71,North,0,0.4,0.7,62,0.00,,,0.00,WUHU216HW,2013-02-04 14:30:00,
2013-02-04 07:31:00,40.0,27.9,29.71,North,0,0.4,0.7,62,0.00,,,0.00,WUHU216HW,2013-02-04 14:31:00,
2013-02-04 07:32:00,40.0,27.9,29.71,NNE,23,2.2,2.2,62,0.00,,,0.00,WUHU216HW,2013-02-04 14:32:00,
2013-02-04 07:34:00,40.3,28.3,29.71,North,0,4.0,4.0,62,0.00,,,0.00,WUHU216HW,2013-02-04 14:34:00,
2013-02-04 07:35:00,40.7,28.6,29.71,North,0,2.2,4.0,62,0.00,,,0.00,WUHU216HW,2013-02-04 14:35:00,
2013-02-04 07:36:00,40.7,28.6,29.71,North,0,2.2,4.0,62,0.00,,,0.00,WUHU216HW,2013-02-04 14:36:00,
2013-02-04 07:37:00,40.7,28.3,29.71,North,0,2.7,4.0,61,0.00,,,0.00,WUHU216HW,2013-02-04 14:37:00,
2013-02-04 07:39:00,41.0,28.6,29.71,NNE,23,1.8,4.0,61,0.00,,,0.00,WUHU216HW,2013-02-04 14:39:00,
2013-02-04 07:40:00,41.4,29.0,29.71,North,0,1.6,4.0,61,0.00,,,0.00,WUHU216HW,2013-02-04 14:40:00,
2013-02-04 07:41:00,41.4,29.0,29.71,North,0,1.6,4.0,61,0.00,,,0.00,WUHU216HW,2013-02-04 14:41:00,
2013-02-04 07:42:00,41.4,29.0,29.71,NNW,338,0.9,4.0,61,0.00,,,0.00,WUHU216HW,2013-02-04 14:42:00,
2013-02-04 07:44:00,41.9,29.1,29.72,NE,45,1.8,4.0,60,0.00,,,0.00,WUHU216HW,2013-02-04 14:44:00,
2013-02-04 07:45:00,42.1,29.3,29.72,NE,45,1.6,4.0,60,0.00,,,0.00,WUHU216HW,2013-02-04 14:45:00,
2013-02-04 07:46:00,42.1,29.3,29.72,NE,45,1.6,4.0,60,0.00,,,0.00,WUHU216HW,2013-02-04 14:46:00,
2013-02-04 07:47:00,42.1,29.3,29.72,NNE,23,2.5,4.0,60,0.00,,,0.00,WUHU216HW,2013-02-04 14:47:00,
2013-02-04 07:49:00,42.3,29.4,29.72,ENE,68,2.2,2.9,60,0.00,,,0.00,WUHU216HW,2013-02-04 14:49:00,
2013-02-04 07:50:00,42.7,29.3,29.72,ENE,68,0.7,2.9,59,0.00,,,0.00,WUHU216HW,2013-02-04 14:50:00,
2013-02-04 07:51:00,42.7,29.3,29.72,ENE,68,0.7,2.9,59,0.00,,,0.00,WUHU216HW,2013-02-04 14:51:00,
2013-02-04 07:52:00,42.8,29.4,29.72,ENE,68,0.0,2.9,59,0.00,,,0.00,WUHU216HW,2013-02-04 14:52:00,
2013-02-04 07:54:00,43.0,29.6,29.72,NNE,23,1.3,2.9,59,0.00,,,0.00,WUHU216HW,2013-02-04 14:54:00,
2013-02-04 07:55:00,43.2,29.3,29.72,ESE,113,1.1,2.9,58,0.00,,,0.00,WUHU216HW,2013-02-04 14:55:00,
2013-02-04 07:56:00,43.2,29.3,29.72,ESE,113,1.1,2.9,58,0.00,,,0.00,WUHU216HW,2013-02-04 14:56:00,
2013-02-04 07:57:00,43.2,29.3,29.72,ENE,68,0.4,2.9,58,0.00,,,0.00,WUHU216HW,2013-02-04 14:57:00,
2013-02-04 07:59:00,43.4,29.5,29.72,NE,45,0.4,1.3,58,0.00,,,0.00,WUHU216HW,2013-02-04 14:59:00,
2013-02-04 08:00:00,43.6,29.7,29.72,NE,45,1.6,1.6,58,0.00,,,0.00,WUHU216HW,2013-02-04 15:00:00,
2013-02-04 08:01:00,43.7,29.9,29.72,ENE,68,3.1,3.1,58,0.00,,,0.00,WUHU216HW,2013-02-04 15:01:00,
2013-02-04 08:02:00,43.9,29.6,29.72,ENE,68,2.2,3.1,57,0.00,,,0.00,WUHU216HW,2013-02-04 15:02:00,
2013-02-04 08:04:00,44.1,29.8,29.72,East,90,1.8,3.1,57,0.00,,,0.00,WUHU216HW,2013-02-04 15:04:00,
2013-02-04 08:05:00,44.3,30.0,29.72,NNE,23,0.9,3.1,57,0.00,,,0.00,WUHU216HW,2013-02-04 15:05:00,
2013-02-04 08:06:00,44.5,30.2,29.72,East,90,1.8,3.1,57,0.00,,,0.00,WUHU216HW,2013-02-04 15:06:00,
2013-02-04 08:07:00,44.6,30.3,29.72,ESE,113,1.6,3.1,57,0.00,,,0.00,WUHU216HW,2013-02-04 15:07:00,
2013-02-04 08:09:00,45.0,30.7,29.72,East,90,0.4,3.1,57,0.00,,,0.00,WUHU216HW,2013-02-04 15:09:00,
2013-02-04 08:11:00,45.0,30.7,29.73,ENE,68,1.3,2.2,57,0.00,,,0.00,WUHU216HW,2013-02-04 15:11:00,
2013-02-04 08:12:00,45.2,30.8,29.73,East,90,0.9,1.8,57,0.00,,,0.00,WUHU216HW,2013-02-04 15:12:00,
2013-02-04 08:14:00,45.4,30.5,29.72,ENE,68,1.1,1.8,56,0.00,,,0.00,WUHU216HW,2013-02-04 15:14:00,
2013-02-04 08:16:00,45.5,30.7,29.72,NE,45,0.7,1.6,56,0.00,,,0.00,WUHU216HW,2013-02-04 15:16:00,
2013-02-04 08:17:00,45.5,30.7,29.72,NE,45,2.0,2.0,56,0.00,,,0.00,WUHU216HW,2013-02-04 15:17:00,
2013-02-04 08:20:00,45.7,30.4,29.73,NNE,23,1.1,2.0,55,0.00,,,0.00,WUHU216HW,2013-02-04 15:20:00,
2013-02-04 08:21:00,46.1,30.7,29.73,East,90,0.9,2.2,55,0.00,,,0.00,WUHU216HW,2013-02-04 15:21:00,
2013-02-04 08:22:00,46.1,30.7,29.73,East,90,0.9,2.2,55,0.00,,,0.00,WUHU216HW,2013-02-04 15:22:00,
2013-02-04 08:23:00,46.1,30.7,29.73,ENE,68,1.8,2.2,55,0.00,,,0.00,WUHU216HW,2013-02-04 15:23:00,
2013-02-04 08:25:00,46.4,31.1,29.72,ENE,68,0.4,2.2,55,0.00,,,0.00,WUHU216HW,2013-02-04 15:25:00,
2013-02-04 08:26:00,46.4,31.1,29.73,ESE,113,1.1,2.2,55,0.00,,,0.00,WUHU216HW,2013-02-04 15:26:00,
2013-02-04 08:27:00,46.4,31.1,29.73,ESE,113,1.1,2.2,55,0.00,,,0.00,WUHU216HW,2013-02-04 15:27:00,
2013-02-04 08:28:00,46.6,31.2,29.73,ESE,113,0.4,2.2,55,0.00,,,0.00,WUHU216HW,2013-02-04 15:28:00,
2013-02-04 08:30:00,47.0,31.2,29.73,East,90,2.0,2.0,54,0.00,,,0.00,WUHU216HW,2013-02-04 15:30:00,
2013-02-04 08:31:00,47.0,31.2,29.73,ESE,113,0.4,2.0,54,0.00,,,0.00,WUHU216HW,2013-02-04 15:31:00,
2013-02-04 08:32:00,47.0,31.2,29.73,ESE,113,0.4,2.0,54,0.00,,,0.00,WUHU216HW,2013-02-04 15:32:00,
2013-02-04 08:33:00,47.2,31.3,29.73,ENE,68,0.4,2.0,54,0.00,,,0.00,WUHU216HW,2013-02-04 15:33:00,
2013-02-04 08:35:00,47.5,31.1,29.73,East,90,2.5,2.5,53,0.00,,,0.00,WUHU216HW,2013-02-04 15:35:00,
2013-02-04 08:36:00,47.5,31.1,29.73,ESE,113,0.2,2.5,53,0.00,,,0.00,WUHU216HW,2013-02-04 15:36:00,
2013-02-04 08:37:00,47.5,31.1,29.73,ESE,113,0.2,2.5,53,0.00,,,0.00,WUHU216HW,2013-02-04 15:37:00,
2013-02-04 08:38:00,47.5,31.1,29.73,East,90,1.1,2.5,53,0.00,,,0.00,WUHU216HW,2013-02-04 15:38:00,
2013-02-04 08:40:00,47.7,30.9,29.73,ENE,68,1.1,2.5,52,0.00,,,0.00,WUHU216HW,2013-02-04 15:40:00,
2013-02-04 08:42:00,47.7,30.9,29.73,East,90,1.8,2.5,52,0.00,,,0.00,WUHU216HW,2013-02-04 15:42:00,
2013-02-04 08:43:00,47.9,31.1,29.73,ENE,68,1.8,2.5,52,0.00,,,0.00,WUHU216HW,2013-02-04 15:43:00,
2013-02-04 08:45:00,48.1,31.2,29.73,SE,135,1.6,2.0,52,0.00,,,0.00,WUHU216HW,2013-02-04 15:45:00,
2013-02-04 08:47:00,48.1,31.2,29.73,ENE,68,2.2,2.2,52,0.00,,,0.00,WUHU216HW,2013-02-04 15:47:00,
2013-02-04 08:48:00,48.2,31.3,29.73,NE,45,1.8,2.2,52,0.00,,,0.00,WUHU216HW,2013-02-04 15:48:00,
2013-02-04 08:50:00,48.6,31.2,29.73,ESE,113,1.8,2.2,51,0.00,,,0.00,WUHU216HW,2013-02-04 15:50:00,
2013-02-04 08:52:00,48.6,31.2,29.73,NE,45,3.1,3.1,51,0.00,,,0.00,WUHU216HW,2013-02-04 15:52:00,
2013-02-04 08:53:00,48.8,31.4,29.73,East,90,0.4,3.1,51,0.00,,,0.00,WUHU216HW,2013-02-04 15:53:00,
2013-02-04 08:56:00,49.0,31.1,29.73,North,0,2.5,3.4,50,0.00,,,0.00,WUHU216HW,2013-02-04 15:56:00,
2013-02-04 08:57:00,49.1,31.3,29.73,North,0,0.4,3.4,50,0.00,,,0.00,WUHU216HW,2013-02-04 15:57:00,
2013-02-04 08:58:00,49.1,31.3,29.73,NNE,23,0.4,3.4,50,0.00,,,0.00,WUHU216HW,2013-02-04 15:58:00,
2013-02-04 09:01:00,49.7,31.9,29.73,NNE,23,1.1,4.0,50,0.00,,,0.00,WUHU216HW,2013-02-04 16:01:00,
2013-02-04 09:02:00,49.7,31.9,29.73,North,0,0.0,4.0,50,0.00,,,0.00,WUHU216HW,2013-02-04 16:02:00,
2013-02-04 09:03:00,49.9,32.0,29.74,NNE,23,1.3,4.0,50,0.00,,,0.00,WUHU216HW,2013-02-04 16:03:00,
2013-02-04 09:06:00,50.0,31.2,29.74,North,0,2.0,4.0,48,0.00,,,0.00,WUHU216HW,2013-02-04 16:06:00,
2013-02-04 09:07:00,50.0,31.2,29.74,NNE,23,1.8,4.0,48,0.00,,,0.00,WUHU216HW,2013-02-04 16:07:00,
2013-02-04 09:08:00,50.2,31.2,29.74,NE,45,1.8,4.0,48,0.00,,,0.00,WUHU216HW,2013-02-04 16:08:00,
2013-02-04 09:11:00,50.2,31.9,29.74,SE,135,0.7,3.4,49,0.00,,,0.00,WUHU216HW,2013-02-04 16:11:00,
2013-02-04 09:13:00,50.4,32.0,29.74,SSE,158,0.2,3.4,49,0.00,,,0.00,WUHU216HW,2013-02-04 16:13:00,
2013-02-04 09:16:00,50.9,32.0,29.74,NE,45,0.9,1.8,48,0.00,,,0.00,WUHU216HW,2013-02-04 16:16:00,
2013-02-04 09:18:00,51.1,31.5,29.74,NNE,23,1.8,1.8,47,0.00,,,0.00,WUHU216HW,2013-02-04 16:18:00,
2013-02-04 09:21:00,51.5,32.4,29.74,NW,315,0.4,4.5,48,0.00,,,0.00,WUHU216HW,2013-02-04 16:21:00,
2013-02-04 09:23:00,51.7,32.1,29.74,NNE,23,3.4,4.5,47,0.00,,,0.00,WUHU216HW,2013-02-04 16:23:00,
2013-02-04 09:24:00,51.7,32.1,29.74,NNE,23,3.4,4.5,47,0.00,,,0.00,WUHU216HW,2013-02-04 16:24:00,
2013-02-04 09:27:00,52.0,32.3,29.74,ENE,68,0.0,4.5,47,0.00,,,0.00,WUHU216HW,2013-02-04 16:27:00,
2013-02-04 09:28:00,52.2,32.5,29.74,NE,45,0.0,3.4,47,0.00,,,0.00,WUHU216HW,2013-02-04 16:28:00,
2013-02-04 09:29:00,52.6,32.9,29.74,NNE,23,1.1,3.4,47,0.00,,,0.00,WUHU216HW,2013-02-04 16:29:00,
2013-02-04 09:32:00,52.9,33.1,29.74,NE,45,2.9,3.4,47,0.00,,,0.00,WUHU216HW,2013-02-04 16:32:00,
2013-02-04 09:33:00,53.5,33.0,29.73,NNE,23,2.0,2.9,46,0.00,,,0.00,WUHU216HW,2013-02-04 16:33:00,
2013-02-04 09:34:00,53.5,33.0,29.74,NNE,23,0.4,2.9,46,0.00,,,0.00,WUHU216HW,2013-02-04 16:34:00,
2013-02-04 09:37:00,53.6,33.2,29.74,NNE,23,1.8,2.9,46,0.00,,,0.00,WUHU216HW,2013-02-04 16:37:00,
2013-02-04 09:38:00,53.8,32.9,29.73,NNE,23,2.0,2.9,45,0.00,,,0.00,WUHU216HW,2013-02-04 16:38:00,
2013-02-04 09:39:00,54.0,33.0,29.73,NNW,338,4.5,4.5,45,0.00,,,0.00,WUHU216HW,2013-02-04 16:39:00,
2013-02-04 09:42:00,53.8,32.9,29.74,ENE,68,1.1,4.5,45,0.00,,,0.00,WUHU216HW,2013-02-04 16:42:00,
2013-02-04 09:43:00,53.6,32.7,29.73,NNW,338,0.9,4.5,45,0.00,,,0.00,WUHU216HW,2013-02-04 16:43:00,
2013-02-04 09:44:00,53.6,32.7,29.73,NNW,338,0.9,4.5,45,0.00,,,0.00,WUHU216HW,2013-02-04 16:44:00,
2013-02-04 09:47:00,54.0,33.0,29.74,SSE,158,0.4,4.5,45,0.00,,,0.00,WUHU216HW,2013-02-04 16:47:00,
2013-02-04 09:48:00,54.4,33.3,29.74,North,0,2.5,4.5,45,0.00,,,0.00,WUHU216HW,2013-02-04 16:48:00,
2013-02-04 09:49:00,54.4,33.3,29.74,North,0,2.5,4.5,45,0.00,,,0.00,WUHU216HW,2013-02-04 16:49:00,
2013-02-04 09:52:00,54.7,33.1,29.73,NE,45,1.8,2.5,44,0.00,,,0.00,WUHU216HW,2013-02-04 16:52:00,
2013-02-04 09:54:00,55.1,32.9,29.73,NE,45,1.8,2.5,43,0.00,,,0.00,WUHU216HW,2013-02-04 16:54:00,
2013-02-04 09:57:00,55.1,33.4,29.73,NNW,338,1.1,3.8,44,0.00,,,0.00,WUHU216HW,2013-02-04 16:57:00,
2013-02-04 09:59:00,55.1,32.9,29.73,ENE,68,2.2,3.8,43,0.00,,,0.00,WUHU216HW,2013-02-04 16:59:00,
2013-02-04 10:02:00,54.7,32.0,29.73,NNW,338,1.8,6.0,42,0.00,,,0.00,WUHU216HW,2013-02-04 17:02:00,
2013-02-04 10:04:00,54.7,32.0,29.73,NW,315,2.7,6.0,42,0.00,,,0.00,WUHU216HW,2013-02-04 17:04:00,
2013-02-04 10:07:00,54.9,32.7,29.73,NNW,338,5.4,6.0,43,0.00,,,0.00,WUHU216HW,2013-02-04 17:07:00,
2013-02-04 10:09:00,55.3,32.5,29.73,NNE,23,7.4,7.4,42,0.00,,,0.00,WUHU216HW,2013-02-04 17:09:00,
2013-02-04 10:10:00,55.3,32.5,29.73,NNE,23,7.4,7.4,42,0.00,,,0.00,WUHU216HW,2013-02-04 17:10:00,
2013-02-04 10:13:00,55.1,31.1,29.73,North,0,4.7,7.4,40,0.00,,,0.00,WUHU216HW,2013-02-04 17:13:00,
2013-02-04 10:14:00,54.5,31.2,29.73,NNE,23,4.0,7.4,41,0.00,,,0.00,WUHU216HW,2013-02-04 17:14:00,
2013-02-04 10:15:00,54.4,31.1,29.74,NNE,23,5.8,7.4,41,0.00,,,0.00,WUHU216HW,2013-02-04 17:15:00,
2013-02-04 10:18:00,54.4,31.7,29.73,NE,45,0.4,7.4,42,0.00,,,0.00,WUHU216HW,2013-02-04 17:18:00,
2013-02-04 10:19:00,54.5,32.4,29.73,North,0,5.6,5.8,43,0.00,,,0.00,WUHU216HW,2013-02-04 17:19:00,
2013-02-04 10:20:00,54.7,32.0,29.73,NNE,23,5.6,5.8,42,0.00,,,0.00,WUHU216HW,2013-02-04 17:20:00,
2013-02-04 10:23:00,54.9,31.6,29.73,NNE,23,4.3,6.3,41,0.00,,,0.00,WUHU216HW,2013-02-04 17:23:00,
2013-02-04 10:24:00,54.9,32.1,29.73,North,0,2.2,6.3,42,0.00,,,0.00,WUHU216HW,2013-02-04 17:24:00,
2013-02-04 10:25:00,55.1,32.3,29.73,NE,45,2.7,6.3,42,0.00,,,0.00,WUHU216HW,2013-02-04 17:25:00,
2013-02-04 10:28:00,55.3,32.5,29.73,NNE,23,2.2,6.3,42,0.00,,,0.00,WUHU216HW,2013-02-04 17:28:00,
2013-02-04 10:29:00,55.6,32.2,29.73,NNE,23,5.1,6.3,41,0.00,,,0.00,WUHU216HW,2013-02-04 17:29:00,
2013-02-04 10:30:00,55.8,32.4,29.73,NNE,23,8.3,8.3,41,0.00,,,0.00,WUHU216HW,2013-02-04 17:30:00,
2013-02-04 10:31:00,55.8,32.4,29.73,NNE,23,8.3,8.3,41,0.00,,,0.00,WUHU216HW,2013-02-04 17:31:00,
2013-02-04 10:33:00,55.8,32.4,29.73,NE,45,3.4,8.3,41,0.00,,,0.00,WUHU216HW,2013-02-04 17:33:00,
2013-02-04 10:35:00,55.8,31.9,29.73,North,0,5.4,8.3,40,0.00,,,0.00,WUHU216HW,2013-02-04 17:35:00,
2013-02-04 10:36:00,55.6,31.7,29.73,North,0,5.4,8.3,40,0.00,,,0.00,WUHU216HW,2013-02-04 17:36:00,
2013-02-04 10:38:00,55.6,32.2,29.73,North,0,7.4,8.3,41,0.00,,,0.00,WUHU216HW,2013-02-04 17:38:00,
2013-02-04 10:40:00,55.6,31.7,29.73,North,0,8.7,9.8,40,0.00,,,0.00,WUHU216HW,2013-02-04 17:40:00,
2013-02-04 10:41:00,55.8,31.9,29.73,North,0,8.1,9.8,40,0.00,,,0.00,WUHU216HW,2013-02-04 17:41:00,
2013-02-04 10:43:00,55.6,31.7,29.73,NE,45,6.7,9.8,40,0.00,,,0.00,WUHU216HW,2013-02-04 17:43:00,
2013-02-04 10:45:00,55.4,30.8,29.72,NNE,23,12.5,12.5,39,0.00,,,0.00,WUHU216HW,2013-02-04 17:45:00,
2013-02-04 10:46:00,55.4,30.8,29.73,NNE,23,7.4,12.5,39,0.00,,,0.00,WUHU216HW,2013-02-04 17:46:00,
2013-02-04 10:48:00,55.1,31.1,29.73,North,0,5.4,12.5,40,0.00,,,0.00,WUHU216HW,2013-02-04 17:48:00,
2013-02-04 10:50:00,55.1,31.1,29.73,NE,45,5.8,12.5,40,0.00,,,0.00,WUHU216HW,2013-02-04 17:50:00,
2013-02-04 10:51:00,55.1,31.1,29.73,NE,45,5.8,12.5,40,0.00,,,0.00,WUHU216HW,2013-02-04 17:51:00,
2013-02-04 10:53:00,55.1,31.1,29.72,NW,315,5.6,12.5,40,0.00,,,0.00,WUHU216HW,2013-02-04 17:53:00,
2013-02-04 10:55:00,55.1,30.5,29.72,ENE,68,5.6,11.0,39,0.00,,,0.00,WUHU216HW,2013-02-04 17:55:00,
2013-02-04 10:56:00,55.1,30.5,29.72,ENE,68,5.6,11.0,39,0.00,,,0.00,WUHU216HW,2013-02-04 17:56:00,
2013-02-04 10:58:00,54.9,29.6,29.72,NE,45,10.5,10.5,38,0.00,,,0.00,WUHU216HW,2013-02-04 17:58:00,
2013-02-04 11:00:00,54.7,30.2,29.72,NNW,338,4.3,10.5,39,0.00,,,0.00,WUHU216HW,2013-02-04 18:00:00,
2013-02-04 11:01:00,54.7,30.2,29.72,NNW,338,3.1,10.5,39,0.00,,,0.00,WUHU216HW,2013-02-04 18:01:00,
2013-02-04 11:03:00,55.1,30.5,29.72,North,0,4.0,10.5,39,0.00,,,0.00,WUHU216HW,2013-02-04 18:03:00,
2013-02-04 11:05:00,55.4,30.1,29.72,NNE,23,13.6,13.6,38,0.00,,,0.00,WUHU216HW,2013-02-04 18:05:00,
2013-02-04 11:06:00,55.4,30.1,29.72,NNE,23,11.9,13.6,38,0.00,,,0.00,WUHU216HW,2013-02-04 18:06:00,
2013-02-04 11:08:00,55.8,30.4,29.72,NNE,23,12.1,13.6,38,0.00,,,0.00,WUHU216HW,2013-02-04 18:08:00,
2013-02-04 11:11:00,56.0,29.9,29.72,North,0,4.0,13.6,37,0.00,,,0.00,WUHU216HW,2013-02-04 18:11:00,
2013-02-04 11:13:00,56.0,29.9,29.72,North,0,4.0,13.6,37,0.00,,,0.00,WUHU216HW,2013-02-04 18:13:00,
2013-02-04 11:16:00,56.5,30.3,29.72,NNW,338,6.7,12.1,37,0.00,,,0.00,WUHU216HW,2013-02-04 18:16:00,
2013-02-04 11:18:00,56.5,29.7,29.72,NNE,23,8.5,9.8,36,0.00,,,0.00,WUHU216HW,2013-02-04 18:18:00,
2013-02-04 11:19:00,56.5,29.7,29.72,NNE,23,8.5,9.8,36,0.00,,,0.00,WUHU216HW,2013-02-04 18:19:00,
2013-02-04 11:21:00,56.5,29.7,29.72,NNE,23,8.1,10.3,36,0.00,,,0.00,WUHU216HW,2013-02-04 18:21:00,
2013-02-04 11:22:00,56.5,29.7,29.72,NNE,23,8.1,10.3,36,0.00,,,0.00,WUHU216HW,2013-02-04 18:22:00,
2013-02-04 11:23:00,56.5,29.7,29.72,North,0,4.7,10.3,36,0.00,,,0.00,WUHU216HW,2013-02-04 18:23:00,
2013-02-04 11:24:00,56.5,29.7,29.72,North,0,4.7,10.3,36,0.00,,,0.00,WUHU216HW,2013-02-04 18:24:00,
2013-02-04 11:27:00,56.9,30.0,29.72,NNE,23,5.1,10.3,36,0.00,,,0.00,WUHU216HW,2013-02-04 18:27:00,
2013-02-04 11:29:00,56.9,30.0,29.72,NNE,23,4.5,10.3,36,0.00,,,0.00,WUHU216HW,2013-02-04 18:29:00,
2013-02-04 11:32:00,57.1,30.2,29.72,North,0,7.6,10.1,36,0.00,,,0.00,WUHU216HW,2013-02-04 18:32:00,
2013-02-04 11:34:00,56.9,28.6,29.71,North,0,4.0,10.1,34,0.00,,,0.00,WUHU216HW,2013-02-04 18:34:00,
2013-02-04 11:37:00,57.1,28.7,29.71,NNE,23,5.8,10.1,34,0.00,,,0.00,WUHU216HW,2013-02-04 18:37:00,
2013-02-04 11:39:00,57.1,29.4,29.71,NNE,23,4.7,10.1,35,0.00,,,0.00,WUHU216HW,2013-02-04 18:39:00,
2013-02-04 11:42:00,57.4,29.1,29.71,North,0,4.7,10.7,34,0.00,,,0.00,WUHU216HW,2013-02-04 18:42:00,
2013-02-04 11:44:00,57.6,28.5,29.71,NNW,338,5.1,10.7,33,0.00,,,0.00,WUHU216HW,2013-02-04 18:44:00,
2013-02-04 11:47:00,57.6,29.3,29.71,North,0,4.7,10.7,34,0.00,,,0.00,WUHU216HW,2013-02-04 18:47:00,
2013-02-04 11:49:00,57.6,29.3,29.71,NNW,338,2.5,10.7,34,0.00,,,0.00,WUHU216HW,2013-02-04 18:49:00,
2013-02-04 11:52:00,57.8,29.4,29.71,WNW,293,3.4,8.5,34,0.00,,,0.00,WUHU216HW,2013-02-04 18:52:00,
2013-02-04 11:54:00,58.1,29.7,29.71,North,0,1.8,8.5,34,0.00,,,0.00,WUHU216HW,2013-02-04 18:54:00,
2013-02-04 11:57:00,58.3,29.2,29.70,SSE,158,2.5,6.0,33,0.00,,,0.00,WUHU216HW,2013-02-04 18:57:00,
2013-02-04 11:59:00,58.3,29.2,29.70,West,270,4.7,6.0,33,0.00,,,0.00,WUHU216HW,2013-02-04 18:59:00,
2013-02-04 12:02:00,58.3,28.4,29.70,North,0,3.1,6.0,32,0.00,,,0.00,WUHU216HW,2013-02-04 19:02:00,
2013-02-04 12:04:00,58.3,29.2,29.70,North,0,6.0,6.0,33,0.00,,,0.00,WUHU216HW,2013-02-04 19:04:00,
2013-02-04 12:07:00,58.5,29.3,29.70,NNE,23,4.3,6.0,33,0.00,,,0.00,WUHU216HW,2013-02-04 19:07:00,
2013-02-04 12:09:00,58.5,29.3,29.70,North,0,4.0,8.3,33,0.00,,,0.00,WUHU216HW,2013-02-04 19:09:00,
2013-02-04 12:12:00,58.5,29.3,29.70,North,0,2.5,8.3,33,0.00,,,0.00,WUHU216HW,2013-02-04 19:12:00,
2013-02-04 12:14:00,58.3,29.2,29.70,NNW,338,4.9,8.3,33,0.00,,,0.00,WUHU216HW,2013-02-04 19:14:00,
2013-02-04 12:17:00,58.3,29.2,29.70,North,0,2.7,8.3,33,0.00,,,0.00,WUHU216HW,2013-02-04 19:17:00,
2013-02-04 12:19:00,58.5,30.1,29.70,WSW,248,1.1,5.8,34,0.00,,,0.00,WUHU216HW,2013-02-04 19:19:00,
2013-02-04 12:22:00,58.9,29.7,29.69,WNW,293,3.4,5.8,33,0.00,,,0.00,WUHU216HW,2013-02-04 19:22:00,
2013-02-04 12:24:00,59.0,29.8,29.69,North,0,2.5,5.8,33,0.00,,,0.00,WUHU216HW,2013-02-04 19:24:00,
2013-02-04 12:25:00,59.0,29.8,29.69,North,0,2.5,3.4,33,0.00,,,0.00,WUHU216HW,2013-02-04 19:25:00,
2013-02-04 12:27:00,59.2,30.0,29.69,NE,45,3.8,4.0,33,0.00,,,0.00,WUHU216HW,2013-02-04 19:27:00,
2013-02-04 12:28:00,59.2,30.0,29.69,NE,45,3.8,4.0,33,0.00,,,0.00,WUHU216HW,2013-02-04 19:28:00,
2013-02-04 12:30:00,59.4,29.4,29.69,North,0,7.2,7.2,32,0.00,,,0.00,WUHU216HW,2013-02-04 19:30:00,
2013-02-04 12:33:00,59.2,30.0,29.69,North,0,0.9,8.1,33,0.00,,,0.00,WUHU216HW,2013-02-04 19:33:00,
2013-02-04 12:35:00,59.4,30.2,29.69,ENE,68,1.8,8.1,33,0.00,,,0.00,WUHU216HW,2013-02-04 19:35:00,
2013-02-04 12:38:00,59.2,29.3,29.68,NNW,338,1.6,8.1,32,0.00,,,0.00,WUHU216HW,2013-02-04 19:38:00,
2013-02-04 12:40:00,59.0,29.2,29.68,WNW,293,2.0,8.1,32,0.00,,,0.00,WUHU216HW,2013-02-04 19:40:00,
2013-02-04 12:43:00,59.2,30.0,29.68,North,0,3.1,4.3,33,0.00,,,0.00,WUHU216HW,2013-02-04 19:43:00,
2013-02-04 12:45:00,59.2,30.0,29.68,WSW,248,0.9,4.3,33,0.00,,,0.00,WUHU216HW,2013-02-04 19:45:00,
2013-02-04 12:48:00,59.4,29.4,29.68,North,0,1.6,3.1,32,0.00,,,0.00,WUHU216HW,2013-02-04 19:48:00,
2013-02-04 12:50:00,59.4,29.4,29.67,NNW,338,3.6,3.6,32,0.00,,,0.00,WUHU216HW,2013-02-04 19:50:00,
2013-02-04 12:53:00,59.6,29.6,29.67,West,270,0.9,3.6,32,0.00,,,0.00,WUHU216HW,2013-02-04 19:53:00,
2013-02-04 12:54:00,59.6,30.2,29.67,West,270,3.1,3.6,33,0.00,,,0.00,WUHU216HW,2013-02-04 19:54:00,
2013-02-04 12:55:00,59.6,30.2,29.67,SW,225,2.9,3.6,33,0.00,,,0.00,WUHU216HW,2013-02-04 19:55:00,
2013-02-04 12:58:00,60.1,30.7,29.67,SSE,158,1.1,3.6,33,0.00,,,0.00,WUHU216HW,2013-02-04 19:58:00,
2013-02-04 12:59:00,60.3,30.2,29.67,ENE,68,1.1,3.1,32,0.00,,,0.00,WUHU216HW,2013-02-04 19:59:00,
2013-02-04 13:00:00,60.3,30.2,29.67,WSW,248,2.5,3.1,32,0.00,,,0.00,WUHU216HW,2013-02-04 20:00:00,
2013-02-04 13:03:00,60.5,30.3,29.67,West,270,1.8,3.1,32,0.00,,,0.00,WUHU216HW,2013-02-04 20:03:00,
2013-02-04 13:04:00,60.5,29.6,29.67,NNW,338,4.5,4.5,31,0.00,,,0.00,WUHU216HW,2013-02-04 20:04:00,
2013-02-04 13:05:00,60.5,29.6,29.67,NNW,338,1.1,4.5,31,0.00,,,0.00,WUHU216HW,2013-02-04 20:05:00,
2013-02-04 13:08:00,60.3,29.4,29.67,NNW,338,3.4,4.5,31,0.00,,,0.00,WUHU216HW,2013-02-04 20:08:00,
2013-02-04 13:09:00,60.3,29.4,29.67,North,0,2.9,4.5,31,0.00,,,0.00,WUHU216HW,2013-02-04 20:09:00,
2013-02-04 13:10:00,60.1,29.4,29.67,North,0,1.3,4.5,31,0.00,,,0.00,WUHU216HW,2013-02-04 20:10:00,
2013-02-04 13:11:00,60.1,29.4,29.67,North,0,2.7,4.5,31,0.00,,,0.00,WUHU216HW,2013-02-04 20:11:00,
2013-02-04 13:13:00,60.1,29.4,29.67,ESE,113,0.4,4.5,31,0.00,,,0.00,WUHU216HW,2013-02-04 20:13:00,
2013-02-04 13:14:00,60.1,29.4,29.67,NNW,338,0.4,3.4,31,0.00,,,0.00,WUHU216HW,2013-02-04 20:14:00,
2013-02-04 13:15:00,60.1,29.4,29.67,SSE,158,1.6,3.4,31,0.00,,,0.00,WUHU216HW,2013-02-04 20:15:00,
2013-02-04 13:16:00,60.1,29.4,29.67,North,0,7.4,7.4,31,0.00,,,0.00,WUHU216HW,2013-02-04 20:16:00,
2013-02-04 13:18:00,60.1,29.4,29.67,WSW,248,0.9,7.4,31,0.00,,,0.00,WUHU216HW,2013-02-04 20:18:00,
2013-02-04 13:20:00,60.1,29.4,29.67,NW,315,6.3,7.4,31,0.00,,,0.00,WUHU216HW,2013-02-04 20:20:00,
2013-02-04 13:21:00,60.1,29.4,29.67,West,270,4.5,7.4,31,0.00,,,0.00,WUHU216HW,2013-02-04 20:21:00,
2013-02-04 13:23:00,60.1,28.6,29.66,SW,225,4.5,7.4,30,0.00,,,0.00,WUHU216HW,2013-02-04 20:23:00,
2013-02-04 13:25:00,60.3,28.7,29.66,SSE,158,2.9,7.4,30,0.00,,,0.00,WUHU216HW,2013-02-04 20:25:00,
2013-02-04 13:26:00,60.3,28.7,29.66,ESE,113,2.2,6.3,30,0.00,,,0.00,WUHU216HW,2013-02-04 20:26:00,
2013-02-04 13:28:00,60.3,28.7,29.66,WSW,248,6.5,6.5,30,0.00,,,0.00,WUHU216HW,2013-02-04 20:28:00,
2013-02-04 13:30:00,60.5,29.6,29.66,ESE,113,3.4,6.9,31,0.00,,,0.00,WUHU216HW,2013-02-04 20:30:00,
2013-02-04 13:31:00,60.5,29.6,29.66,WNW,293,4.0,6.9,31,0.00,,,0.00,WUHU216HW,2013-02-04 20:31:00,
2013-02-04 13:34:00,60.5,29.6,29.66,WSW,248,1.1,6.9,31,0.00,,,0.00,WUHU216HW,2013-02-04 20:34:00,
2013-02-04 13:35:00,60.5,29.6,29.66,South,180,0.4,6.9,31,0.00,,,0.00,WUHU216HW,2013-02-04 20:35:00,
2013-02-04 13:36:00,60.5,29.6,29.66,South,180,0.4,6.9,31,0.00,,,0.00,WUHU216HW,2013-02-04 20:36:00,
2013-02-04 13:37:00,60.5,29.6,29.66,West,270,1.8,6.9,31,0.00,,,0.00,WUHU216HW,2013-02-04 20:37:00,
2013-02-04 13:39:00,60.5,29.6,29.66,West,270,1.1,4.0,31,0.00,,,0.00,WUHU216HW,2013-02-04 20:39:00,
2013-02-04 13:40:00,60.5,29.6,29.66,West,270,1.1,4.0,31,0.00,,,0.00,WUHU216HW,2013-02-04 20:40:00,
2013-02-04 13:41:00,60.7,29.7,29.65,North,0,0.2,4.0,31,0.00,,,0.00,WUHU216HW,2013-02-04 20:41:00,
2013-02-04 13:42:00,60.8,29.9,29.65,North,0,1.8,3.1,31,0.00,,,0.00,WUHU216HW,2013-02-04 20:42:00,
2013-02-04 13:45:00,60.8,29.9,29.65,NNW,338,3.8,4.7,31,0.00,,,0.00,WUHU216HW,2013-02-04 20:45:00,
2013-02-04 13:46:00,60.8,29.9,29.65,North,0,3.4,4.7,31,0.00,,,0.00,WUHU216HW,2013-02-04 20:46:00,
2013-02-04 13:47:00,61.0,29.4,29.65,North,0,3.6,4.7,30,0.00,,,0.00,WUHU216HW,2013-02-04 20:47:00,
2013-02-04 13:50:00,60.8,29.2,29.65,NW,315,1.8,4.7,30,0.00,,,0.00,WUHU216HW,2013-02-04 20:50:00,
2013-02-04 13:51:00,60.8,29.2,29.65,West,270,2.5,4.7,30,0.00,,,0.00,WUHU216HW,2013-02-04 20:51:00,
2013-02-04 13:52:00,60.7,29.0,29.65,West,270,4.7,4.7,30,0.00,,,0.00,WUHU216HW,2013-02-04 20:52:00,
2013-02-04 13:55:00,60.7,28.1,29.65,WSW,248,3.6,4.7,29,0.00,,,0.00,WUHU216HW,2013-02-04 20:55:00,
2013-02-04 13:56:00,60.5,27.9,29.65,WSW,248,6.9,6.9,29,0.00,,,0.00,WUHU216HW,2013-02-04 20:56:00,
2013-02-04 13:57:00,60.7,29.0,29.65,WSW,248,5.4,6.9,30,0.00,,,0.00,WUHU216HW,2013-02-04 20:57:00,
2013-02-04 14:00:00,60.8,28.2,29.65,WSW,248,2.0,6.9,29,0.00,,,0.00,WUHU216HW,2013-02-04 21:00:00,
2013-02-04 14:01:00,60.8,28.2,29.65,NW,315,1.8,6.9,29,0.00,,,0.00,WUHU216HW,2013-02-04 21:01:00,
2013-02-04 14:03:00,60.8,28.2,29.65,West,270,4.0,6.9,29,0.00,,,0.00,WUHU216HW,2013-02-04 21:03:00,
2013-02-04 14:05:00,60.8,28.2,29.65,WSW,248,6.0,6.9,29,0.00,,,0.00,WUHU216HW,2013-02-04 21:05:00,
2013-02-04 14:06:00,60.8,28.2,29.65,West,270,2.2,6.0,29,0.00,,,0.00,WUHU216HW,2013-02-04 21:06:00,
2013-02-04 14:08:00,61.0,28.4,29.65,SE,135,0.9,6.0,29,0.00,,,0.00,WUHU216HW,2013-02-04 21:08:00,
2013-02-04 14:10:00,61.0,28.4,29.65,WSW,248,3.1,6.0,29,0.00,,,0.00,WUHU216HW,2013-02-04 21:10:00,
2013-02-04 14:11:00,61.0,28.4,29.65,WSW,248,3.1,6.0,29,0.00,,,0.00,WUHU216HW,2013-02-04 21:11:00,
2013-02-04 14:13:00,61.2,28.5,29.65,NNE,23,0.4,6.0,29,0.00,,,0.00,WUHU216HW,2013-02-04 21:13:00,
2013-02-04 14:15:00,61.2,29.5,29.65,North,0,1.8,4.9,30,0.00,,,0.00,WUHU216HW,2013-02-04 21:15:00,
2013-02-04 14:16:00,61.2,29.5,29.65,ENE,68,0.9,4.9,30,0.00,,,0.00,WUHU216HW,2013-02-04 21:16:00,
2013-02-04 14:18:00,61.4,29.6,29.65,NE,45,2.0,4.9,30,0.00,,,0.00,WUHU216HW,2013-02-04 21:18:00,
2013-02-04 14:20:00,61.4,27.7,29.64,NNW,338,3.4,3.4,28,0.00,,,0.00,WUHU216HW,2013-02-04 21:20:00,
2013-02-04 14:21:00,61.4,28.7,29.65,North,0,4.9,4.9,29,0.00,,,0.00,WUHU216HW,2013-02-04 21:21:00,
2013-02-04 14:23:00,61.2,28.5,29.65,NNE,23,4.7,4.9,29,0.00,,,0.00,WUHU216HW,2013-02-04 21:23:00,
2013-02-04 14:25:00,61.2,28.5,29.64,North,0,2.0,4.9,29,0.00,,,0.00,WUHU216HW,2013-02-04 21:25:00,
2013-02-04 14:26:00,61.2,28.5,29.64,NNW,338,3.8,4.9,29,0.00,,,0.00,WUHU216HW,2013-02-04 21:26:00,
2013-02-04 14:28:00,61.0,28.4,29.64,NNW,338,1.3,4.9,29,0.00,,,0.00,WUHU216HW,2013-02-04 21:28:00,
2013-02-04 14:30:00,61.0,28.4,29.64,North,0,1.1,4.9,29,0.00,,,0.00,WUHU216HW,2013-02-04 21:30:00,
2013-02-04 14:31:00,61.0,28.4,29.64,West,270,1.3,4.7,29,0.00,,,0.00,WUHU216HW,2013-02-04 21:31:00,
2013-02-04 14:33:00,61.0,28.4,29.64,SW,225,2.0,3.8,29,0.00,,,0.00,WUHU216HW,2013-02-04 21:33:00,
2013-02-04 14:36:00,61.0,29.4,29.64,West,270,2.5,3.8,30,0.00,,,0.00,WUHU216HW,2013-02-04 21:36:00,
2013-02-04 14:37:00,61.2,28.5,29.64,NNW,338,3.4,3.6,29,0.00,,,0.00,WUHU216HW,2013-02-04 21:37:00,
2013-02-04 14:38:00,61.2,28.5,29.64,ESE,113,0.0,3.6,29,0.00,,,0.00,WUHU216HW,2013-02-04 21:38:00,
2013-02-04 14:41:00,61.4,29.6,29.64,North,0,1.1,3.6,30,0.00,,,0.00,WUHU216HW,2013-02-04 21:41:00,
2013-02-04 14:42:00,61.6,29.8,29.64,NNW,338,0.4,3.6,30,0.00,,,0.00,WUHU216HW,2013-02-04 21:42:00,
2013-02-04 14:43:00,61.7,29.0,29.64,NE,45,2.5,3.4,29,0.00,,,0.00,WUHU216HW,2013-02-04 21:43:00,
2013-02-04 14:46:00,61.9,29.2,29.64,ENE,68,0.0,3.4,29,0.00,,,0.00,WUHU216HW,2013-02-04 21:46:00,
2013-02-04 14:47:00,61.9,29.2,29.64,South,180,3.1,3.1,29,0.00,,,0.00,WUHU216HW,2013-02-04 21:47:00,
2013-02-04 14:48:00,61.9,29.2,29.64,SW,225,3.4,3.4,29,0.00,,,0.00,WUHU216HW,2013-02-04 21:48:00,
2013-02-04 14:51:00,61.9,28.2,29.63,SW,225,1.3,3.4,28,0.00,,,0.00,WUHU216HW,2013-02-04 21:51:00,
2013-02-04 14:52:00,61.9,28.2,29.63,South,180,3.4,3.4,28,0.00,,,0.00,WUHU216HW,2013-02-04 21:52:00,
2013-02-04 14:53:00,61.7,28.1,29.63,ESE,113,1.3,3.4,28,0.00,,,0.00,WUHU216HW,2013-02-04 21:53:00,
2013-02-04 14:56:00,61.7,29.0,29.63,ESE,113,2.7,3.4,29,0.00,,,0.00,WUHU216HW,2013-02-04 21:56:00,
2013-02-04 14:57:00,61.6,28.9,29.63,SE,135,4.9,4.9,29,0.00,,,0.00,WUHU216HW,2013-02-04 21:57:00,
2013-02-04 14:58:00,61.4,28.7,29.63,SSW,203,4.7,4.9,29,0.00,,,0.00,WUHU216HW,2013-02-04 21:58:00,
2013-02-04 15:01:00,61.0,28.4,29.63,SSE,158,2.7,4.9,29,0.00,,,0.00,WUHU216HW,2013-02-04 22:01:00,
2013-02-04 15:02:00,61.0,28.4,29.64,South,180,1.8,4.9,29,0.00,,,0.00,WUHU216HW,2013-02-04 22:02:00,
2013-02-04 15:03:00,60.8,28.2,29.63,SSE,158,0.9,4.9,29,0.00,,,0.00,WUHU216HW,2013-02-04 22:03:00,
2013-02-04 15:06:00,61.0,28.4,29.63,SSW,203,1.8,4.9,29,0.00,,,0.00,WUHU216HW,2013-02-04 22:06:00,
2013-02-04 15:07:00,61.0,28.4,29.63,WSW,248,1.3,4.7,29,0.00,,,0.00,WUHU216HW,2013-02-04 22:07:00,
2013-02-04 15:08:00,61.0,28.4,29.63,NNW,338,1.1,2.7,29,0.00,,,0.00,WUHU216HW,2013-02-04 22:08:00,
2013-02-04 15:11:00,61.2,28.5,29.63,South,180,1.1,1.8,29,0.00,,,0.00,WUHU216HW,2013-02-04 22:11:00,
2013-02-04 15:12:00,61.2,28.5,29.63,SE,135,1.1,1.8,29,0.00,,,0.00,WUHU216HW,2013-02-04 22:12:00,
2013-02-04 15:13:00,61.2,28.5,29.63,SSE,158,3.4,3.4,29,0.00,,,0.00,WUHU216HW,2013-02-04 22:13:00,
2013-02-04 15:16:00,61.2,28.5,29.63,SSW,203,5.1,5.1,29,0.00,,,0.00,WUHU216HW,2013-02-04 22:16:00,
2013-02-04 15:17:00,61.2,28.5,29.63,South,180,5.1,5.1,29,0.00,,,0.00,WUHU216HW,2013-02-04 22:17:00,
2013-02-04 15:18:00,61.2,28.5,29.63,South,180,5.1,5.1,29,0.00,,,0.00,WUHU216HW,2013-02-04 22:18:00,
2013-02-04 15:21:00,60.8,27.3,29.63,SSW,203,4.5,5.1,28,0.00,,,0.00,WUHU216HW,2013-02-04 22:21:00,
2013-02-04 15:22:00,60.8,27.3,29.63,South,180,1.8,5.1,28,0.00,,,0.00,WUHU216HW,2013-02-04 22:22:00,
2013-02-04 15:23:00,60.8,27.3,29.63,South,180,1.8,5.1,28,0.00,,,0.00,WUHU216HW,2013-02-04 22:23:00,
2013-02-04 15:24:00,60.8,27.3,29.63,South,180,3.4,5.1,28,0.00,,,0.00,WUHU216HW,2013-02-04 22:24:00,
2013-02-04 15:26:00,60.8,27.3,29.63,SE,135,0.7,5.1,28,0.00,,,0.00,WUHU216HW,2013-02-04 22:26:00,
2013-02-04 15:27:00,60.8,27.3,29.63,ESE,113,3.1,5.1,28,0.00,,,0.00,WUHU216HW,2013-02-04 22:27:00,
2013-02-04 15:29:00,60.8,27.3,29.63,East,90,1.1,5.1,28,0.00,,,0.00,WUHU216HW,2013-02-04 22:29:00,
2013-02-04 15:31:00,60.5,27.0,29.63,SE,135,1.3,3.4,28,0.00,,,0.00,WUHU216HW,2013-02-04 22:31:00,
2013-02-04 15:32:00,60.5,27.0,29.63,SE,135,1.6,3.4,28,0.00,,,0.00,WUHU216HW,2013-02-04 22:32:00,
2013-02-04 15:33:00,60.3,26.8,29.63,SSE,158,1.1,3.4,28,0.00,,,0.00,WUHU216HW,2013-02-04 22:33:00,
2013-02-04 15:34:00,60.5,27.0,29.63,SSE,158,1.8,3.4,28,0.00,,,0.00,WUHU216HW,2013-02-04 22:34:00,
2013-02-04 15:36:00,60.3,26.8,29.63,South,180,2.5,3.4,28,0.00,,,0.00,WUHU216HW,2013-02-04 22:36:00,
2013-02-04 15:37:00,60.3,26.8,29.62,SW,225,0.4,3.4,28,0.00,,,0.00,WUHU216HW,2013-02-04 22:37:00,
2013-02-04 15:38:00,60.3,25.8,29.62,SW,225,1.6,3.4,27,0.00,,,0.00,WUHU216HW,2013-02-04 22:38:00,
2013-02-04 15:39:00,60.1,25.8,29.62,NW,315,6.0,6.0,27,0.00,,,0.00,WUHU216HW,2013-02-04 22:39:00,
2013-02-04 15:42:00,60.1,26.6,29.62,NNE,23,2.2,6.0,28,0.00,,,0.00,WUHU216HW,2013-02-04 22:42:00,
2013-02-04 15:43:00,60.1,26.6,29.62,NW,315,1.8,6.0,28,0.00,,,0.00,WUHU216HW,2013-02-04 22:43:00,
2013-02-04 15:44:00,60.1,26.6,29.62,NNW,338,2.5,6.0,28,0.00,,,0.00,WUHU216HW,2013-02-04 22:44:00,
2013-02-04 15:47:00,60.1,26.6,29.62,NNE,23,1.1,6.0,28,0.00,,,0.00,WUHU216HW,2013-02-04 22:47:00,
2013-02-04 15:48:00,60.1,25.8,29.62,North,0,3.1,6.0,27,0.00,,,0.00,WUHU216HW,2013-02-04 22:48:00,
2013-02-04 15:50:00,60.1,23.8,29.62,West,270,2.9,3.1,25,0.00,,,0.00,WUHU216HW,2013-02-04 22:50:00,
2013-02-04 15:52:00,60.1,23.8,29.63,North,0,3.4,3.4,25,0.00,,,0.00,WUHU216HW,2013-02-04 22:52:00,
2013-02-04 15:54:00,59.9,22.7,29.63,NW,315,4.0,4.9,24,0.00,,,0.00,WUHU216HW,2013-02-04 22:54:00,
2013-02-04 15:55:00,59.8,22.5,29.63,NW,315,4.0,4.9,24,0.00,,,0.00,WUHU216HW,2013-02-04 22:55:00,
2013-02-04 15:57:00,59.8,22.5,29.63,North,0,3.6,4.9,24,0.00,,,0.00,WUHU216HW,2013-02-04 22:57:00,
2013-02-04 15:58:00,59.6,22.3,29.63,West,270,1.8,4.9,24,0.00,,,0.00,WUHU216HW,2013-02-04 22:58:00,
2013-02-04 15:59:00,59.6,22.3,29.63,North,0,0.4,4.9,24,0.00,,,0.00,WUHU216HW,2013-02-04 22:59:00,
2013-02-04 16:00:00,59.6,23.3,29.63,NNW,338,2.5,4.9,25,0.00,,,0.00,WUHU216HW,2013-02-04 23:00:00,
2013-02-04 16:02:00,59.4,22.2,29.63,NNW,338,5.8,5.8,24,0.00,,,0.00,WUHU216HW,2013-02-04 23:02:00,
2013-02-04 16:03:00,59.4,21.3,29.63,NNW,338,5.4,5.8,23,0.00,,,0.00,WUHU216HW,2013-02-04 23:03:00,
2013-02-04 16:04:00,59.4,22.2,29.63,North,0,4.0,5.8,24,0.00,,,0.00,WUHU216HW,2013-02-04 23:04:00,
2013-02-04 16:05:00,59.2,21.1,29.63,NNW,338,3.6,5.8,23,0.00,,,0.00,WUHU216HW,2013-02-04 23:05:00,
2013-02-04 16:07:00,59.0,20.9,29.63,North,0,3.8,5.8,23,0.00,,,0.00,WUHU216HW,2013-02-04 23:07:00,
2013-02-04 16:08:00,59.0,20.9,29.63,North,0,3.1,5.8,23,0.00,,,0.00,WUHU216HW,2013-02-04 23:08:00,
2013-02-04 16:09:00,59.0,20.9,29.63,North,0,5.1,5.8,23,0.00,,,0.00,WUHU216HW,2013-02-04 23:09:00,
2013-02-04 16:11:00,58.9,20.8,29.63,NNW,338,3.6,5.8,23,0.00,,,0.00,WUHU216HW,2013-02-04 23:11:00,
2013-02-04 16:12:00,58.7,20.6,29.63,NNE,23,6.3,6.3,23,0.00,,,0.00,WUHU216HW,2013-02-04 23:12:00,
2013-02-04 16:13:00,58.7,20.6,29.63,NNW,338,6.3,6.3,23,0.00,,,0.00,WUHU216HW,2013-02-04 23:13:00,
2013-02-04 16:14:00,58.7,20.6,29.63,North,0,3.4,6.3,23,0.00,,,0.00,WUHU216HW,2013-02-04 23:14:00,
2013-02-04 16:16:00,58.5,20.4,29.63,NNE,23,5.8,6.3,23,0.00,,,0.00,WUHU216HW,2013-02-04 23:16:00,
2013-02-04 16:18:00,58.3,20.4,29.63,ENE,68,5.1,6.9,23,0.00,,,0.00,WUHU216HW,2013-02-04 23:18:00,
2013-02-04 16:19:00,58.3,20.4,29.63,NNW,338,6.0,6.9,23,0.00,,,0.00,WUHU216HW,2013-02-04 23:19:00,
2013-02-04 16:21:00,58.1,20.2,29.63,NNW,338,5.4,6.9,23,0.00,,,0.00,WUHU216HW,2013-02-04 23:21:00,
2013-02-04 16:23:00,58.1,20.2,29.63,North,0,3.6,6.9,23,0.00,,,0.00,WUHU216HW,2013-02-04 23:23:00,
2013-02-04 16:24:00,58.0,20.0,29.63,NNW,338,4.0,6.9,23,0.00,,,0.00,WUHU216HW,2013-02-04 23:24:00,
2013-02-04 16:26:00,58.0,20.0,29.63,NNW,338,5.8,6.9,23,0.00,,,0.00,WUHU216HW,2013-02-04 23:26:00,
2013-02-04 16:28:00,57.8,20.8,29.63,NNW,338,6.0,6.3,24,0.00,,,0.00,WUHU216HW,2013-02-04 23:28:00,
2013-02-04 16:29:00,58.0,21.0,29.63,NNW,338,2.2,6.3,24,0.00,,,0.00,WUHU216HW,2013-02-04 23:29:00,
2013-02-04 16:31:00,57.8,20.8,29.63,North,0,4.5,6.3,24,0.00,,,0.00,WUHU216HW,2013-02-04 23:31:00,
2013-02-04 16:33:00,57.6,20.7,29.63,North,0,6.9,6.9,24,0.00,,,0.00,WUHU216HW,2013-02-04 23:33:00,
2013-02-04 16:34:00,57.8,20.8,29.63,NNE,23,4.5,6.9,24,0.00,,,0.00,WUHU216HW,2013-02-04 23:34:00,
2013-02-04 16:37:00,57.6,20.7,29.63,North,0,7.4,7.4,24,0.00,,,0.00,WUHU216HW,2013-02-04 23:37:00,
2013-02-04 16:38:00,57.6,20.7,29.63,NNW,338,7.2,7.4,24,0.00,,,0.00,WUHU216HW,2013-02-04 23:38:00,
2013-02-04 16:39:00,57.4,20.5,29.63,North,0,4.9,7.4,24,0.00,,,0.00,WUHU216HW,2013-02-04 23:39:00,
2013-02-04 16:40:00,57.6,21.6,29.63,NNE,23,7.4,7.4,25,0.00,,,0.00,WUHU216HW,2013-02-04 23:40:00,
2013-02-04 16:42:00,57.6,21.6,29.63,NNW,338,4.7,7.4,25,0.00,,,0.00,WUHU216HW,2013-02-04 23:42:00,
2013-02-04 16:43:00,57.4,21.5,29.63,North,0,6.7,7.4,25,0.00,,,0.00,WUHU216HW,2013-02-04 23:43:00,
2013-02-04 16:44:00,57.4,21.5,29.62,NW,315,7.6,7.6,25,0.00,,,0.00,WUHU216HW,2013-02-04 23:44:00,
2013-02-04 16:45:00,57.2,21.3,29.63,NW,315,6.9,7.6,25,0.00,,,0.00,WUHU216HW,2013-02-04 23:45:00,
2013-02-04 16:47:00,57.1,21.2,29.63,NE,45,4.7,7.6,25,0.00,,,0.00,WUHU216HW,2013-02-04 23:47:00,
2013-02-04 16:48:00,57.1,21.2,29.63,NNW,338,5.1,7.6,25,0.00,,,0.00,WUHU216HW,2013-02-04 23:48:00,
2013-02-04 16:49:00,57.1,20.3,29.62,NNW,338,4.7,7.6,24,0.00,,,0.00,WUHU216HW,2013-02-04 23:49:00,
2013-02-04 16:50:00,56.9,20.1,29.63,NW,315,4.9,7.6,24,0.00,,,0.00,WUHU216HW,2013-02-04 23:50:00,
2013-02-04 16:52:00,56.9,21.1,29.63,NNW,338,3.6,7.6,25,0.00,,,0.00,WUHU216HW,2013-02-04 23:52:00,
2013-02-04 16:53:00,56.7,20.9,29.63,NW,315,4.0,6.9,25,0.00,,,0.00,WUHU216HW,2013-02-04 23:53:00,
2013-02-04 16:54:00,56.7,20.9,29.63,NNW,338,4.5,6.9,25,0.00,,,0.00,WUHU216HW,2013-02-04 23:54:00,
2013-02-04 16:55:00,56.7,20.9,29.63,NE,45,5.8,5.8,25,0.00,,,0.00,WUHU216HW,2013-02-04 23:55:00,
2013-02-04 16:57:00,56.5,20.7,29.63,North,0,6.3,6.3,25,0.00,,,0.00,WUHU216HW,2013-02-04 23:57:00,
2013-02-04 16:58:00,56.5,20.7,29.63,North,0,6.3,6.3,25,0.00,,,0.00,WUHU216HW,2013-02-04 23:58:00,
2013-02-04 16:59:00,56.5,20.7,29.63,NNW,338,3.6,6.3,25,0.00,,,0.00,WUHU216HW,2013-02-04 23:59:00,
2013-02-04 17:00:00,56.5,20.7,29.62,North,0,7.8,8.3,25,0.00,,,0.00,WUHU216HW,2013-02-05 00:00:00,
2013-02-04 17:02:00,56.5,20.7,29.62,NNW,338,5.4,8.3,25,0.00,,,0.00,WUHU216HW,2013-02-05 00:02:00,
2013-02-04 17:03:00,56.3,20.5,29.62,NNW,338,6.9,8.3,25,0.00,,,0.00,WUHU216HW,2013-02-05 00:03:00,
2013-02-04 17:04:00,56.3,20.5,29.63,NNW,338,5.4,8.3,25,0.00,,,0.00,WUHU216HW,2013-02-05 00:04:00,
2013-02-04 17:05:00,56.2,20.4,29.63,NNW,338,5.4,8.3,25,0.00,,,0.00,WUHU216HW,2013-02-05 00:05:00,
2013-02-04 17:08:00,56.0,19.4,29.63,North,0,5.8,8.3,24,0.00,,,0.00,WUHU216HW,2013-02-05 00:08:00,
2013-02-04 17:09:00,56.0,19.4,29.62,NW,315,4.0,8.3,24,0.00,,,0.00,WUHU216HW,2013-02-05 00:09:00,
2013-02-04 17:10:00,55.8,20.1,29.63,North,0,4.5,7.6,25,0.00,,,0.00,WUHU216HW,2013-02-05 00:10:00,
2013-02-04 17:13:00,55.8,20.1,29.63,NNW,338,3.1,7.6,25,0.00,,,0.00,WUHU216HW,2013-02-05 00:13:00,
2013-02-04 17:14:00,55.8,20.1,29.63,NNW,338,2.9,7.6,25,0.00,,,0.00,WUHU216HW,2013-02-05 00:14:00,
2013-02-04 17:15:00,55.6,20.0,29.63,NNW,338,4.5,7.6,25,0.00,,,0.00,WUHU216HW,2013-02-05 00:15:00,
2013-02-04 17:18:00,55.6,20.0,29.63,NNW,338,2.7,5.1,25,0.00,,,0.00,WUHU216HW,2013-02-05 00:18:00,
2013-02-04 17:19:00,55.6,20.0,29.63,NNW,338,2.7,5.1,25,0.00,,,0.00,WUHU216HW,2013-02-05 00:19:00,
2013-02-04 17:20:00,55.6,20.0,29.63,NNW,338,2.7,5.1,25,0.00,,,0.00,WUHU216HW,2013-02-05 00:20:00,
2013-02-04 17:23:00,55.4,19.8,29.63,North,0,2.0,5.4,25,0.00,,,0.00,WUHU216HW,2013-02-05 00:23:00,
2013-02-04 17:24:00,55.4,19.8,29.63,North,0,2.0,5.4,25,0.00,,,0.00,WUHU216HW,2013-02-05 00:24:00,
2013-02-04 17:25:00,55.3,19.6,29.63,NW,315,2.2,5.4,25,0.00,,,0.00,WUHU216HW,2013-02-05 00:25:00,
2013-02-04 17:29:00,55.1,20.4,29.63,NNE,23,2.7,5.4,26,0.00,,,0.00,WUHU216HW,2013-02-05 00:29:00,
2013-02-04 17:30:00,55.1,21.3,29.63,NNW,338,2.7,5.4,27,0.00,,,0.00,WUHU216HW,2013-02-05 00:30:00,
2013-02-04 17:34:00,54.9,21.3,29.63,NNW,338,4.0,4.7,27,0.00,,,0.00,WUHU216HW,2013-02-05 00:34:00,
2013-02-04 17:35:00,54.9,21.3,29.63,NNW,338,1.3,4.0,27,0.00,,,0.00,WUHU216HW,2013-02-05 00:35:00,
2013-02-04 17:36:00,54.9,21.3,29.63,NNW,338,1.3,4.0,27,0.00,,,0.00,WUHU216HW,2013-02-05 00:36:00,
2013-02-04 17:39:00,54.7,21.1,29.63,North,0,1.1,4.0,27,0.00,,,0.00,WUHU216HW,2013-02-05 00:39:00,
2013-02-04 17:40:00,54.7,21.1,29.64,North,0,1.1,4.0,27,0.00,,,0.00,WUHU216HW,2013-02-05 00:40:00,
2013-02-04 17:41:00,54.7,21.1,29.64,North,0,1.1,4.0,27,0.00,,,0.00,WUHU216HW,2013-02-05 00:41:00,
2013-02-04 17:44:00,54.7,21.1,29.64,NNW,338,4.0,4.5,27,0.00,,,0.00,WUHU216HW,2013-02-05 00:44:00,
2013-02-04 17:45:00,54.5,21.0,29.63,NW,315,3.4,4.5,27,0.00,,,0.00,WUHU216HW,2013-02-05 00:45:00,
2013-02-04 17:46:00,54.5,21.0,29.63,NW,315,3.4,4.5,27,0.00,,,0.00,WUHU216HW,2013-02-05 00:46:00,
2013-02-04 17:49:00,54.4,20.8,29.64,North,0,4.0,4.5,27,0.00,,,0.00,WUHU216HW,2013-02-05 00:49:00,
2013-02-04 17:50:00,54.4,20.8,29.64,NNW,338,3.4,4.5,27,0.00,,,0.00,WUHU216HW,2013-02-05 00:50:00,
2013-02-04 17:51:00,54.2,20.6,29.64,NW,315,4.7,4.7,27,0.00,,,0.00,WUHU216HW,2013-02-05 00:51:00,
2013-02-04 17:54:00,54.2,20.6,29.64,NNW,338,2.5,4.7,27,0.00,,,0.00,WUHU216HW,2013-02-05 00:54:00,
2013-02-04 17:55:00,54.0,20.5,29.64,North,0,4.7,4.7,27,0.00,,,0.00,WUHU216HW,2013-02-05 00:55:00,
2013-02-04 17:56:00,54.0,20.5,29.64,NNW,338,4.0,4.7,27,0.00,,,0.00,WUHU216HW,2013-02-05 00:56:00,
2013-02-04 17:59:00,53.8,21.2,29.64,NNW,338,2.7,4.7,28,0.00,,,0.00,WUHU216HW,2013-02-05 00:59:00,
2013-02-04 18:00:00,53.8,21.2,29.64,North,0,0.7,4.7,28,0.00,,,0.00,WUHU216HW,2013-02-05 01:00:00,
2013-02-04 18:01:00,53.8,21.2,29.64,NNW,338,3.8,4.7,28,0.00,,,0.00,WUHU216HW,2013-02-05 01:01:00,
2013-02-04 18:04:00,53.6,21.2,29.64,NW,315,3.4,4.0,28,0.00,,,0.00,WUHU216HW,2013-02-05 01:04:00,
2013-02-04 18:05:00,53.6,21.2,29.64,North,0,4.0,4.0,28,0.00,,,0.00,WUHU216HW,2013-02-05 01:05:00,
2013-02-04 18:06:00,53.5,21.0,29.64,NW,315,4.0,4.0,28,0.00,,,0.00,WUHU216HW,2013-02-05 01:06:00,
2013-02-04 18:09:00,53.5,21.0,29.64,North,0,3.4,7.6,28,0.00,,,0.00,WUHU216HW,2013-02-05 01:09:00,
2013-02-04 18:10:00,53.3,20.8,29.65,NNW,338,2.0,7.6,28,0.00,,,0.00,WUHU216HW,2013-02-05 01:10:00,
2013-02-04 18:11:00,53.3,21.8,29.65,North,0,6.0,7.6,29,0.00,,,0.00,WUHU216HW,2013-02-05 01:11:00,
2013-02-04 18:15:00,53.3,21.8,29.65,North,0,1.8,7.6,29,0.00,,,0.00,WUHU216HW,2013-02-05 01:15:00,
2013-02-04 18:16:00,53.1,21.6,29.65,NW,315,3.1,7.6,29,0.00,,,0.00,WUHU216HW,2013-02-05 01:16:00,
2013-02-04 18:20:00,52.9,22.4,29.65,North,0,5.4,6.0,30,0.00,,,0.00,WUHU216HW,2013-02-05 01:20:00,
2013-02-04 18:21:00,52.9,22.4,29.65,NNE,23,4.0,6.0,30,0.00,,,0.00,WUHU216HW,2013-02-05 01:21:00,
2013-02-04 18:22:00,52.9,22.4,29.65,NNE,23,4.0,6.0,30,0.00,,,0.00,WUHU216HW,2013-02-05 01:22:00,
2013-02-04 18:25:00,52.7,22.2,29.65,NNW,338,4.0,5.4,30,0.00,,,0.00,WUHU216HW,2013-02-05 01:25:00,
2013-02-04 18:27:00,52.6,22.8,29.65,NNW,338,7.4,7.4,31,0.00,,,0.00,WUHU216HW,2013-02-05 01:27:00,
2013-02-04 18:30:00,52.4,22.6,29.65,North,0,3.4,7.4,31,0.00,,,0.00,WUHU216HW,2013-02-05 01:30:00,
2013-02-04 18:32:00,52.2,22.4,29.65,NNW,338,2.2,7.4,31,0.00,,,0.00,WUHU216HW,2013-02-05 01:32:00,
2013-02-04 18:35:00,52.2,22.4,29.65,North,0,3.4,7.4,31,0.00,,,0.00,WUHU216HW,2013-02-05 01:35:00,
2013-02-04 18:37:00,52.0,23.0,29.65,NNE,23,4.5,6.5,32,0.00,,,0.00,WUHU216HW,2013-02-05 01:37:00,
2013-02-04 18:40:00,51.8,22.8,29.66,NNW,338,3.4,6.5,32,0.00,,,0.00,WUHU216HW,2013-02-05 01:40:00,
2013-02-04 18:42:00,51.8,22.8,29.65,NNE,23,6.7,6.7,32,0.00,,,0.00,WUHU216HW,2013-02-05 01:42:00,
2013-02-04 18:45:00,51.7,22.6,29.66,NNW,338,4.3,8.3,32,0.00,,,0.00,WUHU216HW,2013-02-05 01:45:00,
2013-02-04 18:47:00,51.5,22.5,29.66,NW,315,2.9,8.3,32,0.00,,,0.00,WUHU216HW,2013-02-05 01:47:00,
2013-02-04 18:50:00,51.3,22.3,29.66,NNW,338,5.4,9.4,32,0.00,,,0.00,WUHU216HW,2013-02-05 01:50:00,
2013-02-04 18:52:00,51.3,22.3,29.66,NNW,338,5.1,9.4,32,0.00,,,0.00,WUHU216HW,2013-02-05 01:52:00,
2013-02-04 18:55:00,51.3,22.3,29.66,North,0,4.0,9.4,32,0.00,,,0.00,WUHU216HW,2013-02-05 01:55:00,
2013-02-04 18:57:00,51.3,22.3,29.66,NNW,338,4.0,9.4,32,0.00,,,0.00,WUHU216HW,2013-02-05 01:57:00,
2013-02-04 18:58:00,51.3,22.3,29.66,NNW,338,3.4,9.4,32,0.00,,,0.00,WUHU216HW,2013-02-05 01:58:00,
2013-02-04 19:00:00,51.3,22.3,29.66,North,0,0.4,5.1,32,0.00,,,0.00,WUHU216HW,2013-02-05 02:00:00,
2013-02-04 19:02:00,51.3,22.3,29.66,North,0,1.8,4.3,32,0.00,,,0.00,WUHU216HW,2013-02-05 02:02:00,
2013-02-04 19:03:00,51.3,22.3,29.66,North,0,2.2,4.3,32,0.00,,,0.00,WUHU216HW,2013-02-05 02:03:00,
2013-02-04 19:06:00,51.3,23.0,29.66,NNE,23,3.6,4.3,33,0.00,,,0.00,WUHU216HW,2013-02-05 02:06:00,
2013-02-04 19:07:00,51.3,23.0,29.66,North,0,2.5,4.3,33,0.00,,,0.00,WUHU216HW,2013-02-05 02:07:00,
2013-02-04 19:08:00,51.3,23.0,29.66,North,0,4.0,4.3,33,0.00,,,0.00,WUHU216HW,2013-02-05 02:08:00,
2013-02-04 19:11:00,51.1,22.9,29.66,North,0,3.8,4.0,33,0.00,,,0.00,WUHU216HW,2013-02-05 02:11:00,
2013-02-04 19:12:00,51.1,22.9,29.66,North,0,3.1,4.0,33,0.00,,,0.00,WUHU216HW,2013-02-05 02:12:00,
2013-02-04 19:13:00,51.1,22.9,29.66,NNE,23,2.9,4.0,33,0.00,,,0.00,WUHU216HW,2013-02-05 02:13:00,
2013-02-04 19:16:00,50.8,22.5,29.66,North,0,5.4,5.8,33,0.00,,,0.00,WUHU216HW,2013-02-05 02:16:00,
2013-02-04 19:17:00,50.8,22.5,29.66,North,0,5.6,5.8,33,0.00,,,0.00,WUHU216HW,2013-02-05 02:17:00,
2013-02-04 19:18:00,50.8,22.5,29.66,North,0,5.6,5.8,33,0.00,,,0.00,WUHU216HW,2013-02-05 02:18:00,
2013-02-04 19:21:00,50.4,22.1,29.66,North,0,2.5,5.8,33,0.00,,,0.00,WUHU216HW,2013-02-05 02:21:00,
2013-02-04 19:22:00,50.2,22.1,29.66,NNE,23,4.0,5.8,33,0.00,,,0.00,WUHU216HW,2013-02-05 02:22:00,
2013-02-04 19:23:00,50.2,22.1,29.66,NNE,23,4.0,5.8,33,0.00,,,0.00,WUHU216HW,2013-02-05 02:23:00,
2013-02-04 19:26:00,50.0,21.9,29.67,North,0,4.3,5.6,33,0.00,,,0.00,WUHU216HW,2013-02-05 02:26:00,
2013-02-04 19:28:00,49.9,22.4,29.67,NNE,23,4.5,5.6,34,0.00,,,0.00,WUHU216HW,2013-02-05 02:28:00,
2013-02-04 19:31:00,49.5,22.1,29.67,North,0,4.3,4.7,34,0.00,,,0.00,WUHU216HW,2013-02-05 02:31:00,
2013-02-04 19:33:00,49.3,22.0,29.67,North,0,4.5,4.7,34,0.00,,,0.00,WUHU216HW,2013-02-05 02:33:00,
2013-02-04 19:37:00,49.0,22.3,29.67,North,0,2.0,4.7,35,0.00,,,0.00,WUHU216HW,2013-02-05 02:37:00,
2013-02-04 19:38:00,49.0,22.3,29.67,North,0,2.7,4.7,35,0.00,,,0.00,WUHU216HW,2013-02-05 02:38:00,
2013-02-04 19:39:00,48.8,22.9,29.67,NNW,338,2.7,4.5,36,0.00,,,0.00,WUHU216HW,2013-02-05 02:39:00,
2013-02-04 19:42:00,48.6,22.7,29.67,North,0,2.0,3.1,36,0.00,,,0.00,WUHU216HW,2013-02-05 02:42:00,
2013-02-04 19:43:00,48.6,22.7,29.67,North,0,2.0,3.1,36,0.00,,,0.00,WUHU216HW,2013-02-05 02:43:00,
2013-02-04 19:44:00,48.6,22.7,29.67,North,0,2.7,3.1,36,0.00,,,0.00,WUHU216HW,2013-02-05 02:44:00,
2013-02-04 19:47:00,48.4,22.5,29.67,NNE,23,2.5,3.6,36,0.00,,,0.00,WUHU216HW,2013-02-05 02:47:00,
2013-02-04 19:48:00,48.4,22.5,29.67,NNE,23,2.5,3.6,36,0.00,,,0.00,WUHU216HW,2013-02-05 02:48:00,
2013-02-04 19:49:00,48.4,22.5,29.67,NNE,23,2.5,3.6,36,0.00,,,0.00,WUHU216HW,2013-02-05 02:49:00,
2013-02-04 19:53:00,48.2,22.3,29.67,North,0,1.8,3.6,36,0.00,,,0.00,WUHU216HW,2013-02-05 02:53:00,
2013-02-04 19:54:00,48.2,22.3,29.67,North,0,2.0,3.6,36,0.00,,,0.00,WUHU216HW,2013-02-05 02:54:00,
2013-02-04 19:58:00,48.1,22.2,29.67,NNW,338,2.9,3.6,36,0.00,,,0.00,WUHU216HW,2013-02-05 02:58:00,
2013-02-04 19:59:00,48.1,22.2,29.67,NNW,338,3.4,3.6,36,0.00,,,0.00,WUHU216HW,2013-02-05 02:59:00,
2013-02-04 20:03:00,48.1,22.2,29.67,NNW,338,2.5,3.4,36,0.00,,,0.00,WUHU216HW,2013-02-05 03:03:00,
2013-02-04 20:04:00,48.1,22.2,29.67,North,0,1.3,3.4,36,0.00,,,0.00,WUHU216HW,2013-02-05 03:04:00,
2013-02-04 20:08:00,48.1,22.2,29.67,North,0,1.8,3.4,36,0.00,,,0.00,WUHU216HW,2013-02-05 03:08:00,
2013-02-04 20:09:00,48.1,22.2,29.67,NNE,23,2.2,3.1,36,0.00,,,0.00,WUHU216HW,2013-02-05 03:09:00,
2013-02-04 20:13:00,47.9,22.1,29.67,NW,315,2.7,3.1,36,0.00,,,0.00,WUHU216HW,2013-02-05 03:13:00,
2013-02-04 20:14:00,47.9,22.1,29.67,NW,315,2.7,3.1,36,0.00,,,0.00,WUHU216HW,2013-02-05 03:14:00,
2013-02-04 20:18:00,47.7,21.9,29.67,NW,315,2.5,3.1,36,0.00,,,0.00,WUHU216HW,2013-02-05 03:18:00,
2013-02-04 20:19:00,47.7,21.9,29.67,NW,315,2.5,3.1,36,0.00,,,0.00,WUHU216HW,2013-02-05 03:19:00,
2013-02-04 20:23:00,47.3,22.2,29.67,NW,315,2.5,2.7,37,0.00,,,0.00,WUHU216HW,2013-02-05 03:23:00,
2013-02-04 20:24:00,47.3,22.2,29.67,NW,315,2.5,2.7,37,0.00,,,0.00,WUHU216HW,2013-02-05 03:24:00,
2013-02-04 20:28:00,47.2,22.1,29.67,North,0,1.8,3.1,37,0.00,,,0.00,WUHU216HW,2013-02-05 03:28:00,
2013-02-04 20:29:00,47.2,22.1,29.67,North,0,1.8,3.1,37,0.00,,,0.00,WUHU216HW,2013-02-05 03:29:00,
2013-02-04 20:30:00,47.2,22.1,29.68,NNE,23,3.4,3.4,37,0.00,,,0.00,WUHU216HW,2013-02-05 03:30:00,
2013-02-04 20:33:00,47.2,22.1,29.68,North,0,3.4,4.0,37,0.00,,,0.00,WUHU216HW,2013-02-05 03:33:00,
2013-02-04 20:34:00,47.2,22.1,29.68,North,0,3.4,4.0,37,0.00,,,0.00,WUHU216HW,2013-02-05 03:34:00,
2013-02-04 20:35:00,47.2,22.1,29.68,NNE,23,2.5,4.0,37,0.00,,,0.00,WUHU216HW,2013-02-05 03:35:00,
2013-02-04 20:38:00,47.2,22.1,29.68,NNW,338,2.7,5.8,37,0.00,,,0.00,WUHU216HW,2013-02-05 03:38:00,
2013-02-04 20:39:00,47.2,22.1,29.68,NNW,338,2.7,5.8,37,0.00,,,0.00,WUHU216HW,2013-02-05 03:39:00,
2013-02-04 20:40:00,47.2,22.1,29.68,NW,315,2.9,5.8,37,0.00,,,0.00,WUHU216HW,2013-02-05 03:40:00,
2013-02-04 20:44:00,47.2,22.1,29.68,North,0,4.7,5.8,37,0.00,,,0.00,WUHU216HW,2013-02-05 03:44:00,
2013-02-04 20:45:00,47.2,22.1,29.68,North,0,3.4,5.8,37,0.00,,,0.00,WUHU216HW,2013-02-05 03:45:00,
2013-02-04 20:49:00,47.2,22.1,29.68,NW,315,4.5,5.4,37,0.00,,,0.00,WUHU216HW,2013-02-05 03:49:00,
2013-02-04 20:50:00,47.2,22.1,29.69,NNE,23,1.6,5.4,37,0.00,,,0.00,WUHU216HW,2013-02-05 03:50:00,
2013-02-04 20:54:00,47.2,22.1,29.69,North,0,1.8,4.9,37,0.00,,,0.00,WUHU216HW,2013-02-05 03:54:00,
2013-02-04 20:55:00,47.2,22.1,29.69,North,0,2.5,4.9,37,0.00,,,0.00,WUHU216HW,2013-02-05 03:55:00,
2013-02-04 20:59:00,47.0,21.3,29.69,North,0,2.7,3.1,36,0.00,,,0.00,WUHU216HW,2013-02-05 03:59:00,
2013-02-04 21:00:00,47.0,21.3,29.69,NNW,338,2.5,3.1,36,0.00,,,0.00,WUHU216HW,2013-02-05 04:00:00,
2013-02-04 21:04:00,47.0,21.3,29.68,North,0,2.5,3.4,36,0.00,,,0.00,WUHU216HW,2013-02-05 04:04:00,
2013-02-04 21:05:00,46.8,21.1,29.69,NNW,338,2.7,3.4,36,0.00,,,0.00,WUHU216HW,2013-02-05 04:05:00,
2013-02-04 21:09:00,46.8,21.7,29.69,North,0,8.5,8.5,37,0.00,,,0.00,WUHU216HW,2013-02-05 04:09:00,
2013-02-04 21:10:00,46.8,21.7,29.68,North,0,6.5,8.5,37,0.00,,,0.00,WUHU216HW,2013-02-05 04:10:00,
2013-02-04 21:14:00,46.4,21.4,29.68,NNW,338,5.4,8.5,37,0.00,,,0.00,WUHU216HW,2013-02-05 04:14:00,
2013-02-04 21:15:00,46.4,22.1,29.68,NNW,338,6.9,8.5,38,0.00,,,0.00,WUHU216HW,2013-02-05 04:15:00,
2013-02-04 21:16:00,46.4,22.1,29.68,NNW,338,6.9,8.5,38,0.00,,,0.00,WUHU216HW,2013-02-05 04:16:00,
2013-02-04 21:19:00,46.4,22.1,29.68,North,0,4.9,10.7,38,0.00,,,0.00,WUHU216HW,2013-02-05 04:19:00,
2013-02-04 21:20:00,46.4,22.1,29.68,NNW,338,4.3,10.7,38,0.00,,,0.00,WUHU216HW,2013-02-05 04:20:00,
2013-02-04 21:21:00,46.4,22.1,29.68,NNW,338,4.3,10.7,38,0.00,,,0.00,WUHU216HW,2013-02-05 04:21:00,
2013-02-04 21:24:00,46.4,22.1,29.69,North,0,3.1,10.7,38,0.00,,,0.00,WUHU216HW,2013-02-05 04:24:00,
2013-02-04 21:25:00,46.3,21.9,29.69,North,0,6.7,10.7,38,0.00,,,0.00,WUHU216HW,2013-02-05 04:25:00,
2013-02-04 21:26:00,46.3,21.9,29.69,NNW,338,3.6,6.7,38,0.00,,,0.00,WUHU216HW,2013-02-05 04:26:00,
2013-02-04 21:29:00,46.3,21.9,29.69,NNE,23,3.4,6.7,38,0.00,,,0.00,WUHU216HW,2013-02-05 04:29:00,
2013-02-04 21:30:00,46.3,21.9,29.69,NNE,23,3.4,6.7,38,0.00,,,0.00,WUHU216HW,2013-02-05 04:30:00,
2013-02-04 21:31:00,46.3,21.9,29.68,NNE,23,3.1,6.7,38,0.00,,,0.00,WUHU216HW,2013-02-05 04:31:00,
2013-02-04 21:34:00,46.3,22.6,29.68,NNE,23,2.9,6.9,39,0.00,,,0.00,WUHU216HW,2013-02-05 04:34:00,
2013-02-04 21:35:00,46.3,22.6,29.68,NNE,23,2.9,6.9,39,0.00,,,0.00,WUHU216HW,2013-02-05 04:35:00,
2013-02-04 21:36:00,46.1,22.4,29.68,NNW,338,9.8,9.8,39,0.00,,,0.00,WUHU216HW,2013-02-05 04:36:00,
2013-02-04 21:39:00,46.1,22.4,29.68,NNW,338,3.4,9.8,39,0.00,,,0.00,WUHU216HW,2013-02-05 04:39:00,
2013-02-04 21:40:00,46.1,22.4,29.68,NNW,338,3.4,9.8,39,0.00,,,0.00,WUHU216HW,2013-02-05 04:40:00,
2013-02-04 21:41:00,46.1,22.4,29.68,NNE,23,2.2,9.8,39,0.00,,,0.00,WUHU216HW,2013-02-05 04:41:00,
2013-02-04 21:44:00,45.9,22.2,29.68,NNW,338,4.7,9.8,39,0.00,,,0.00,WUHU216HW,2013-02-05 04:44:00,
2013-02-04 21:45:00,45.9,22.2,29.68,NNW,338,5.6,9.8,39,0.00,,,0.00,WUHU216HW,2013-02-05 04:45:00,
2013-02-04 21:46:00,45.9,23.0,29.68,NW,315,9.2,9.2,40,0.00,,,0.00,WUHU216HW,2013-02-05 04:46:00,
2013-02-04 21:49:00,45.7,22.8,29.68,NNW,338,6.9,9.2,40,0.00,,,0.00,WUHU216HW,2013-02-05 04:49:00,
2013-02-04 21:50:00,45.7,22.8,29.68,NW,315,5.6,9.2,40,0.00,,,0.00,WUHU216HW,2013-02-05 04:50:00,
2013-02-04 21:51:00,45.7,22.8,29.68,NW,315,8.5,9.2,40,0.00,,,0.00,WUHU216HW,2013-02-05 04:51:00,
2013-02-04 21:54:00,45.7,22.8,29.68,West,270,5.6,9.2,40,0.00,,,0.00,WUHU216HW,2013-02-05 04:54:00,
2013-02-04 21:55:00,45.5,22.6,29.68,NNE,23,2.7,9.2,40,0.00,,,0.00,WUHU216HW,2013-02-05 04:55:00,
2013-02-04 21:56:00,45.5,22.6,29.68,NNW,338,5.8,8.5,40,0.00,,,0.00,WUHU216HW,2013-02-05 04:56:00,
2013-02-04 21:57:00,45.5,22.6,29.68,North,0,4.5,8.5,40,0.00,,,0.00,WUHU216HW,2013-02-05 04:57:00,
2013-02-04 21:59:00,45.5,22.6,29.68,WSW,248,4.0,8.5,40,0.00,,,0.00,WUHU216HW,2013-02-05 04:59:00,
2013-02-04 22:00:00,45.4,22.4,29.68,North,0,3.1,8.5,40,0.00,,,0.00,WUHU216HW,2013-02-05 05:00:00,
2013-02-04 22:05:00,45.4,22.4,29.68,NW,315,4.0,5.8,40,0.00,,,0.00,WUHU216HW,2013-02-05 05:05:00,
2013-02-04 22:10:00,45.2,22.2,29.68,WNW,293,1.6,4.3,40,0.00,,,0.00,WUHU216HW,2013-02-05 05:10:00,
2013-02-04 22:15:00,45.0,22.2,29.68,NW,315,2.2,2.9,40,0.00,,,0.00,WUHU216HW,2013-02-05 05:15:00,
2013-02-04 22:16:00,45.0,22.2,29.68,NW,315,2.2,2.9,40,0.00,,,0.00,WUHU216HW,2013-02-05 05:16:00,
2013-02-04 22:20:00,45.0,22.2,29.68,North,0,0.4,2.9,40,0.00,,,0.00,WUHU216HW,2013-02-05 05:20:00,
2013-02-04 22:21:00,45.0,22.2,29.68,North,0,0.4,2.9,40,0.00,,,0.00,WUHU216HW,2013-02-05 05:21:00,
2013-02-04 22:25:00,45.0,22.2,29.68,West,270,0.9,2.0,40,0.00,,,0.00,WUHU216HW,2013-02-05 05:25:00,
2013-02-04 22:26:00,45.0,22.2,29.68,West,270,0.9,2.0,40,0.00,,,0.00,WUHU216HW,2013-02-05 05:26:00,
2013-02-04 22:30:00,44.8,22.0,29.68,NW,315,2.7,3.4,40,0.00,,,0.00,WUHU216HW,2013-02-05 05:30:00,
2013-02-04 22:31:00,44.8,22.0,29.68,NW,315,2.7,3.4,40,0.00,,,0.00,WUHU216HW,2013-02-05 05:31:00,
2013-02-04 22:35:00,44.3,21.4,29.68,NNW,338,1.8,3.6,40,0.00,,,0.00,WUHU216HW,2013-02-05 05:35:00,
2013-02-04 22:36:00,44.3,21.4,29.68,NNW,338,1.8,3.6,40,0.00,,,0.00,WUHU216HW,2013-02-05 05:36:00,
2013-02-04 22:40:00,44.1,21.3,29.68,North,0,2.7,3.6,40,0.00,,,0.00,WUHU216HW,2013-02-05 05:40:00,
2013-02-04 22:41:00,44.1,21.3,29.68,North,0,2.7,3.6,40,0.00,,,0.00,WUHU216HW,2013-02-05 05:41:00,
2013-02-04 22:45:00,43.7,21.0,29.68,NNW,338,0.4,2.7,40,0.00,,,0.00,WUHU216HW,2013-02-05 05:45:00,
2013-02-04 22:46:00,43.7,21.0,29.68,NNW,338,0.4,2.7,40,0.00,,,0.00,WUHU216HW,2013-02-05 05:46:00,
2013-02-04 22:50:00,43.7,21.0,29.68,NNE,23,0.4,2.5,40,0.00,,,0.00,WUHU216HW,2013-02-05 05:50:00,
2013-02-04 22:51:00,43.7,21.0,29.68,NNE,23,0.4,2.5,40,0.00,,,0.00,WUHU216HW,2013-02-05 05:51:00,
2013-02-04 22:56:00,43.6,20.8,29.68,West,270,0.2,4.0,40,0.00,,,0.00,WUHU216HW,2013-02-05 05:56:00,
2013-02-04 22:57:00,43.7,21.0,29.68,NNW,338,0.4,4.0,40,0.00,,,0.00,WUHU216HW,2013-02-05 05:57:00,
2013-02-04 23:01:00,43.7,21.0,29.68,West,270,1.8,4.0,40,0.00,,,0.00,WUHU216HW,2013-02-05 06:01:00,
2013-02-04 23:02:00,43.7,21.0,29.68,West,270,0.0,4.0,40,0.00,,,0.00,WUHU216HW,2013-02-05 06:02:00,
2013-02-04 23:06:00,43.7,20.4,29.68,West,270,1.6,1.8,39,0.00,,,0.00,WUHU216HW,2013-02-05 06:06:00,
2013-02-04 23:07:00,43.7,20.4,29.68,WSW,248,1.3,1.8,39,0.00,,,0.00,WUHU216HW,2013-02-05 06:07:00,
2013-02-04 23:11:00,43.9,20.4,29.68,NW,315,0.2,1.8,39,0.00,,,0.00,WUHU216HW,2013-02-05 06:11:00,
2013-02-04 23:12:00,43.9,20.4,29.68,West,270,1.1,1.8,39,0.00,,,0.00,WUHU216HW,2013-02-05 06:12:00,
2013-02-04 23:16:00,43.9,20.4,29.68,West,270,1.6,2.2,39,0.00,,,0.00,WUHU216HW,2013-02-05 06:16:00,
2013-02-04 23:17:00,43.9,20.4,29.68,West,270,3.4,3.4,39,0.00,,,0.00,WUHU216HW,2013-02-05 06:17:00,
2013-02-04 23:18:00,43.9,20.4,29.68,West,270,3.4,3.4,39,0.00,,,0.00,WUHU216HW,2013-02-05 06:18:00,
2013-02-04 23:21:00,43.9,20.4,29.68,West,270,1.1,3.4,39,0.00,,,0.00,WUHU216HW,2013-02-05 06:21:00,
2013-02-04 23:22:00,43.9,20.4,29.68,WNW,293,0.4,3.4,39,0.00,,,0.00,WUHU216HW,2013-02-05 06:22:00,
2013-02-04 23:23:00,43.9,20.4,29.68,North,0,0.4,3.4,39,0.00,,,0.00,WUHU216HW,2013-02-05 06:23:00,
2013-02-04 23:26:00,43.9,20.4,29.68,West,270,0.4,3.4,39,0.00,,,0.00,WUHU216HW,2013-02-05 06:26:00,
2013-02-04 23:27:00,43.7,20.4,29.68,NW,315,0.4,1.3,39,0.00,,,0.00,WUHU216HW,2013-02-05 06:27:00,
2013-02-04 23:28:00,43.7,20.4,29.68,NW,315,0.4,1.3,39,0.00,,,0.00,WUHU216HW,2013-02-05 06:28:00,
2013-02-04 23:32:00,43.9,20.4,29.68,WSW,248,0.7,1.8,39,0.00,,,0.00,WUHU216HW,2013-02-05 06:32:00,
2013-02-04 23:33:00,43.9,20.4,29.68,WSW,248,0.7,1.8,39,0.00,,,0.00,WUHU216HW,2013-02-05 06:33:00,
2013-02-04 23:37:00,43.9,19.8,29.68,NNW,338,0.0,1.8,38,0.00,,,0.00,WUHU216HW,2013-02-05 06:37:00,
2013-02-04 23:38:00,43.9,19.8,29.68,West,270,1.1,1.1,38,0.00,,,0.00,WUHU216HW,2013-02-05 06:38:00,
2013-02-04 23:42:00,43.7,19.6,29.68,West,270,3.4,3.4,38,0.00,,,0.00,WUHU216HW,2013-02-05 06:42:00,
2013-02-04 23:43:00,43.7,19.6,29.68,West,270,3.4,3.4,38,0.00,,,0.00,WUHU216HW,2013-02-05 06:43:00,
2013-02-04 23:47:00,43.6,19.4,29.68,WNW,293,1.8,3.4,38,0.00,,,0.00,WUHU216HW,2013-02-05 06:47:00,
2013-02-04 23:48:00,43.6,19.4,29.68,WNW,293,1.8,3.4,38,0.00,,,0.00,WUHU216HW,2013-02-05 06:48:00,
2013-02-04 23:52:00,43.4,19.4,29.68,West,270,0.0,2.0,38,0.00,,,0.00,WUHU216HW,2013-02-05 06:52:00,
2013-02-04 23:53:00,43.4,19.4,29.68,West,270,0.0,2.0,38,0.00,,,0.00,WUHU216HW,2013-02-05 06:53:00,
2013-02-04 23:57:00,43.2,19.2,29.68,WNW,293,0.0,2.0,38,0.00,,,0.00,WUHU216HW,2013-02-05 06:57:00,
2013-02-04 23:58:00,43.2,19.2,29.68,WNW,293,0.0,2.0,38,0.00,,,0.00,WUHU216HW,2013-02-05 06:58:00,